ECMWFFLT2_sfc_thetae_075.txt.gz
Theta_e
305 304 303 304 304 302 302 302 302 303 303 303 303 303 302 302 300 300 300 301 301 302 301 301 302 304 304 305 305 305 305 304 304 304 306 306 306 306 305 305 305 304 302 302 300 299 298 298 296 294 291 288
306 304 303 302 302 302 301 301 301 302 302 302 302 302 301 300 299 299 298 299 299 300 299 299 300 302 303 304 304 303 303 303 303 303 303 304 305 305 304 304 303 301 300 300 299 297 297 296 294 292 290 287
305 304 303 303 302 302 302 302 301 302 301 301 300 300 299 299 299 298 297 297 296 298 298 296 297 300 301 302 302 302 302 301 301 302 302 302 301 301 301 302 299 297 297 297 296 296 295 294 291 290 287 287
300 305 304 304 304 303 303 302 302 302 301 301 300 299 299 299 301 300 294 295 293 295 295 294 296 298 299 301 300 300 299 299 300 300 301 300 299 299 298 298 294 293 294 295 295 294 293 292 289 286 286 285
297 298 302 304 305 306 305 304 303 302 302 302 302 302 299 300 297 295 294 292 291 294 292 293 295 296 297 299 298 298 297 297 298 298 299 298 297 296 295 293 291 291 292 292 293 292 291 290 286 286 285 285
295 296 299 298 298 299 301 302 304 303 302 302 300 300 300 298 296 295 293 292 293 293 291 293 295 294 295 297 297 297 296 295 296 297 297 296 296 294 293 291 287 287 288 289 290 290 289 286 286 286 285 285
294 295 295 295 294 296 298 298 300 300 300 298 297 297 296 297 295 293 293 292 293 294 295 295 294 293 294 295 295 294 294 293 293 295 294 294 294 292 290 287 287 286 286 286 287 287 286 285 285 285 285 285
292 293 293 293 293 293 294 294 295 295 296 296 295 294 294 294 294 294 292 292 293 293 292 290 290 291 291 291 291 291 290 290 290 292 291 291 291 287 287 286 285 286 285 286 285 285 285 285 285 285 285 285
291 293 292 292 292 292 292 293 293 293 293 293 293 293 293 293 293 292 291 290 290 290 288 288 289 288 288 288 288 289 288 287 287 287 286 286 286 286 286 285 285 285 285 285 285 284 284 284 284 284 285 284
291 293 292 292 291 292 292 292 292 292 292 292 292 292 292 292 292 291 290 290 289 289 288 288 288 288 287 287 287 287 287 287 286 286 286 286 285 285 285 285 285 284 285 284 284 284 283 283 283 283 284 284
290 290 291 291 291 292 292 291 291 291 291 291 290 290 291 291 290 290 289 289 288 288 287 287 287 287 287 286 286 287 286 286 286 285 285 285 285 285 284 284 284 284 283 283 283 284 283 283 282 282 282 283
289 289 289 290 293 292 292 293 292 291 290 290 290 290 289 290 290 289 288 288 288 288 287 287 287 286 286 286 286 286 286 286 286 285 285 285 285 284 284 283 284 283 283 284 284 283 283 283 282 282 283 282
289 289 289 290 290 290 293 292 292 291 290 290 289 289 289 290 289 288 288 288 288 287 287 287 286 286 286 286 286 286 286 285 285 285 285 285 284 284 284 284 284 284 284 283 283 283 283 283 283 283 282 282
290 289 290 290 290 289 293 290 290 291 290 290 288 288 288 288 289 288 288 288 287 286 287 286 286 286 286 285 286 285 285 285 284 284 284 284 284 283 284 283 284 284 283 283 283 283 283 283 283 283 282 282
288 289 289 291 289 290 290 289 290 290 289 289 289 289 288 288 288 289 288 287 287 286 286 286 286 286 285 285 286 285 285 285 284 284 284 284 284 284 283 283 283 283 282 283 283 283 282 282 283 282 282 282
290 289 290 290 289 290 290 291 290 289 289 290 289 289 288 288 287 288 288 288 287 286 286 286 286 286 285 285 285 285 285 284 284 284 284 284 283 283 283 283 283 283 282 282 283 282 282 282 282 282 282 282
288 289 289 289 290 290 290 289 289 289 289 289 288 288 288 288 287 288 288 287 287 288 287 287 286 286 286 286 286 285 285 284 284 284 283 283 283 283 283 283 283 283 282 282 282 282 282 282 282 282 282 282
288 288 290 289 288 289 289 288 288 290 288 288 289 288 288 287 287 288 287 287 287 286 286 286 285 285 285 286 285 284 284 284 284 283 283 283 283 283 283 282 282 281 282 282 282 282 282 282 282 282 281 281
288 287 287 288 288 288 288 288 288 287 287 287 287 287 287 286 287 288 287 286 286 286 285 285 285 285 285 285 284 284 284 283 283 283 282 283 282 282 282 282 282 282 281 281 281 281 282 281 281 281 281 281
285 285 286 286 287 287 287 286 286 286 286 286 286 286 286 286 286 287 286 286 285 285 285 284 284 285 285 284 284 284 283 283 283 283 282 283 282 281 282 282 282 282 281 281 281 281 281 281 281 281 281 281
286 285 285 285 285 286 286 285 285 286 286 286 286 285 285 286 285 286 286 285 284 284 285 284 284 284 284 284 283 283 283 283 283 282 282 282 283 282 281 281 281 281 281 281 280 281 281 281 281 281 281 281
284 284 284 284 285 286 285 285 285 286 286 286 285 285 285 285 285 286 285 285 284 284 284 284 284 284 284 283 283 282 282 282 282 282 281 281 282 281 281 280 281 280 281 280 280 280 280 281 281 281 281 281
284 284 284 284 284 284 284 285 285 286 285 285 285 285 285 285 285 285 285 284 284 284 284 283 283 283 283 283 282 282 282 282 282 282 281 280 281 281 281 280 281 280 280 280 280 279 280 280 280 281 281 282
283 283 283 282 282 282 283 283 285 286 285 285 285 285 285 285 285 285 285 285 284 284 283 283 283 283 283 283 282 281 281 282 282 281 281 281 280 280 280 281 281 280 279 279 279 279 280 280 280 280 281 281
281 281 281 281 280 280 281 282 283 283 284 284 285 285 285 285 285 285 284 285 284 284 283 283 283 282 282 283 282 281 281 282 281 281 281 281 281 281 280 280 281 280 280 278 278 280 279 280 280 281 281 281
281 281 281 280 279 280 281 281 280 280 282 283 283 283 284 284 284 284 284 284 284 283 283 282 282 282 282 282 281 282 282 281 282 282 281 281 279 281 279 279 280 280 279 278 277 277 277 279 280 281 281 281
280 280 281 280 279 279 280 282 281 281 282 282 282 282 283 283 283 283 283 282 282 282 282 281 281 281 281 281 281 281 280 281 280 280 280 280 279 279 280 279 280 280 280 278 279 278 276 276 277 279 280 281
280 279 279 279 279 279 279 278 280 280 280 280 280 280 282 282 282 282 281 281 281 281 281 281 280 281 280 280 281 280 279 279 279 280 280 280 279 279 277 278 279 281 280 279 278 275 276 276 275 274 277 277
279 278 277 277 278 279 278 278 278 278 278 279 279 280 280 280 281 280 280 280 280 280 280 280 280 279 280 279 280 280 279 279 279 279 280 280 279 278 278 277 279 280 279 279 280 279 276 275 273 273 276 277
277 276 276 275 275 275 275 274 275 275 275 276 277 277 279 279 279 278 278 278 278 278 279 278 278 278 278 278 278 278 278 279 279 279 279 280 279 278 279 278 277 277 280 279 279 280 280 280 277 277 277 276
277 276 276 275 275 275 274 274 275 276 276 277 277 277 276 276 277 277 276 276 276 277 277 277 277 277 277 277 277 278 278 278 278 279 279 280 279 279 279 279 276 276 277 279 278 278 279 279 280 279 276 274

ECMWFFLT2_sfc_thetae_078.txt.gz
Theta_e
306 306 305 305 305 304 303 304 305 305 305 304 304 303 302 301 300 300 301 301 302 301 301 301 304 304 305 305 305 305 304 304 304 305 305 305 305 305 305 305 303 302 301 300 299 298 298 297 294 293 292 293
305 304 304 304 303 303 302 303 303 304 303 303 303 302 302 301 299 299 299 299 300 300 299 299 301 303 304 304 303 303 302 303 303 304 303 302 302 303 303 301 298 297 298 298 298 297 296 295 293 292 291 292
307 305 304 303 303 303 303 302 302 303 303 302 302 301 301 300 299 297 297 297 297 298 297 297 298 300 302 302 302 301 301 301 301 302 301 301 301 300 298 296 295 295 296 296 296 296 295 293 291 290 291 291
307 306 305 304 304 303 303 303 303 302 302 302 301 301 300 300 299 297 297 296 296 297 295 296 297 298 300 301 300 299 299 299 299 300 300 299 299 297 296 294 293 293 294 294 294 294 293 291 290 292 291 291
305 305 304 305 304 304 305 306 306 305 303 302 303 302 301 301 300 300 299 298 297 296 296 293 296 297 297 299 299 298 297 296 297 298 298 297 297 295 294 292 291 291 291 292 292 291 290 290 291 291 291 291
304 305 302 303 303 302 302 303 302 304 305 304 304 301 301 302 299 299 299 298 296 297 296 297 295 295 296 297 297 296 295 294 295 296 296 295 295 294 292 291 293 292 290 289 290 289 289 291 291 291 291 291
303 303 302 302 302 302 300 300 301 301 302 303 303 302 301 300 300 299 299 298 297 297 296 296 295 293 295 295 295 294 294 293 293 294 294 293 293 292 291 292 292 292 292 292 289 289 291 291 291 290 291 291
301 300 299 299 299 299 299 300 300 300 300 300 301 301 300 299 299 299 298 297 295 295 297 296 294 292 292 292 292 290 293 292 292 292 292 291 291 291 291 292 291 291 291 291 291 291 290 289 290 290 290 290
297 298 297 298 298 298 298 299 299 299 299 299 299 299 298 299 298 299 298 298 297 297 296 296 296 296 295 295 295 292 294 294 294 293 293 293 292 292 292 291 291 291 290 290 290 290 290 289 289 290 290 290
296 296 297 297 296 297 298 298 297 298 298 298 298 298 297 297 298 298 297 297 297 296 296 295 295 295 294 294 294 294 293 293 293 293 292 292 292 291 291 291 291 290 289 289 289 289 289 287 289 287 289 289
297 297 297 297 297 298 298 298 298 297 297 297 297 298 297 297 296 296 296 296 296 296 295 295 294 294 294 294 293 294 293 293 293 292 292 292 292 292 291 291 291 290 289 289 289 289 289 288 286 287 287 289
296 297 297 297 297 297 297 297 297 297 296 298 297 297 296 296 297 295 295 296 295 295 295 295 295 294 294 294 293 294 293 292 292 292 292 292 291 290 291 290 290 290 289 289 290 288 289 289 288 287 287 287
296 296 296 296 296 296 296 296 296 297 297 296 296 296 297 296 295 295 295 295 295 294 295 295 295 293 293 294 293 294 292 293 292 292 291 291 291 291 290 290 290 290 290 290 289 288 288 288 288 288 286 286
296 295 295 295 295 295 295 295 296 296 295 295 295 295 296 296 295 294 294 294 294 294 294 294 294 294 294 293 293 292 292 292 292 291 291 291 291 290 290 290 290 289 290 289 289 289 288 288 288 289 288 287
294 295 295 295 295 295 295 295 295 295 295 295 294 294 296 296 296 294 294 294 294 293 293 294 294 293 293 292 293 293 292 292 292 291 290 291 290 290 290 289 290 289 289 289 289 289 289 288 288 288 288 288
294 294 294 294 293 293 294 295 295 294 294 294 294 295 294 294 294 294 294 294 294 293 293 293 293 293 293 292 293 293 292 292 292 291 291 291 291 290 290 289 289 290 289 289 289 289 288 288 288 287 288 288
293 293 292 291 291 292 292 292 292 292 292 292 293 293 294 293 293 293 293 292 293 293 292 292 292 292 293 293 293 293 293 293 292 291 291 291 291 290 290 289 289 290 289 288 289 289 288 288 288 288 288 288
290 291 291 291 291 292 292 291 291 291 291 291 291 292 292 292 292 293 292 292 292 292 292 292 292 292 292 292 293 292 292 291 291 291 291 291 290 289 289 289 289 288 288 288 289 288 289 288 288 288 288 287
290 290 291 291 291 291 291 291 291 291 291 291 291 291 291 291 291 292 292 292 291 291 291 291 291 291 291 292 292 290 291 290 290 290 290 290 289 290 289 289 289 289 288 288 288 288 288 288 288 288 288 288
289 289 289 290 290 290 291 291 290 290 290 291 290 291 291 291 291 291 290 290 291 290 290 290 290 290 291 291 290 290 290 290 289 289 290 290 289 288 288 289 289 289 288 288 288 288 288 288 288 288 288 288
290 289 289 289 289 290 290 289 289 289 290 290 290 290 289 290 290 290 290 290 290 289 290 289 290 290 290 290 289 289 289 289 290 289 288 288 289 289 287 287 287 288 288 288 288 288 288 288 288 288 288 288
288 289 288 288 289 289 288 289 289 289 289 289 289 289 288 289 289 289 289 289 289 289 289 289 289 289 289 289 288 288 288 288 289 289 288 287 288 288 287 286 287 287 287 288 287 287 287 287 287 287 287 288
288 288 288 287 287 287 287 288 288 288 288 288 288 287 288 288 288 288 288 288 288 288 287 288 288 288 288 288 287 287 287 288 288 288 288 287 287 288 287 287 287 286 286 286 286 286 286 287 287 288 288 288
286 286 285 285 285 286 286 286 286 287 287 287 286 287 287 287 287 287 287 287 287 287 286 286 286 286 287 286 286 286 286 286 286 286 286 286 286 286 286 287 287 287 286 286 286 285 286 287 287 287 287 287
283 283 283 284 283 283 284 284 285 285 285 285 285 286 286 286 286 286 286 286 285 285 285 285 285 285 285 285 285 285 285 285 285 286 286 285 286 285 285 285 287 287 287 284 284 286 286 287 288 287 286 287
282 283 282 281 282 282 283 283 283 283 284 284 284 285 285 285 285 284 284 284 284 284 283 283 283 283 283 283 284 284 284 284 285 285 285 285 284 286 284 284 286 286 285 283 283 282 283 284 286 288 287 286
281 282 282 281 281 282 282 283 283 283 283 283 283 283 284 283 283 282 282 282 282 281 281 281 281 281 281 282 282 281 282 282 283 283 283 284 283 283 284 284 286 285 286 282 283 284 282 280 281 285 285 286
282 282 282 282 282 282 282 281 283 282 282 282 281 281 282 281 281 280 280 280 280 280 280 280 280 281 280 280 281 280 280 280 281 282 282 282 283 283 281 283 283 286 285 284 282 279 280 281 281 278 281 284
281 281 280 281 281 282 281 281 280 278 278 278 278 278 278 278 279 279 279 279 279 280 279 280 280 280 280 280 280 280 280 280 280 281 281 282 282 281 281 280 282 283 285 284 285 282 279 278 278 279 282 283
279 278 277 277 276 275 275 274 274 273 273 274 275 275 277 277 278 278 278 278 279 279 279 279 279 279 278 278 278 279 279 279 280 280 280 281 281 280 281 281 280 280 284 284 284 284 284 282 279 279 281 280
277 276 275 275 274 274 273 273 273 274 275 275 275 276 275 276 277 277 277 277 278 278 278 278 278 277 277 276 277 277 277 277 278 279 279 280 280 280 280 281 278 279 280 282 283 284 283 283 283 283 280 278

ECMWFFLT2_sfc_thetae_081.txt.gz
Theta_e
308 307 307 307 306 306 306 306 306 306 305 304 304 303 302 302 301 301 301 302 302 301 301 303 305 306 306 305 305 304 304 305 305 305 305 305 304 305 304 301 300 299 300 300 300 299 298 297 295 294 295 295
306 306 306 305 304 303 304 304 305 305 305 304 303 302 301 300 299 300 299 299 300 299 299 300 301 304 304 304 303 303 302 303 304 304 303 303 302 301 299 298 297 297 298 298 298 297 296 295 293 293 295 294
305 305 304 304 303 303 302 303 303 304 304 303 303 301 301 299 298 297 298 297 298 297 297 297 298 300 303 302 302 301 300 301 302 302 301 301 300 299 297 296 295 295 296 296 296 295 294 293 293 294 294 293
305 305 304 303 303 303 303 303 303 302 301 302 301 302 300 300 299 298 298 297 298 296 296 295 297 298 300 301 300 299 298 298 299 300 300 299 299 297 295 294 293 293 294 294 294 293 293 293 294 294 293 293
307 306 306 306 307 307 307 307 306 306 304 302 303 302 302 301 300 302 300 299 298 298 297 296 296 296 297 299 298 297 296 296 297 298 298 297 297 295 294 293 293 293 293 293 292 292 292 293 294 293 293 293
306 305 302 306 306 305 305 305 303 305 305 306 304 303 302 303 302 300 300 300 299 298 298 298 296 295 295 296 296 296 295 294 295 296 296 295 295 294 293 294 295 295 294 293 292 291 292 294 293 293 293 293
304 303 303 303 302 302 300 301 300 300 301 301 303 303 302 300 301 301 299 299 298 296 297 297 297 294 295 295 295 294 294 294 293 294 294 294 293 293 293 295 295 294 294 294 293 293 294 293 293 292 293 293
302 302 301 301 301 300 300 301 301 301 301 301 302 303 301 300 301 300 300 300 298 297 298 300 297 297 296 295 295 294 295 296 294 294 295 294 293 294 294 294 293 293 293 293 293 293 292 292 292 292 292 292
299 300 299 299 299 300 299 300 301 301 301 301 301 301 300 301 299 300 299 300 299 299 298 298 298 298 298 297 297 294 295 296 296 295 296 295 295 295 294 293 293 293 292 292 292 292 292 291 291 291 292 292
298 297 298 299 298 299 300 300 299 300 300 300 300 300 299 299 300 300 299 299 298 298 298 297 297 297 297 296 296 296 295 295 295 295 295 294 294 294 294 293 293 293 292 291 291 291 291 291 291 291 291 291
298 299 299 299 299 300 300 300 300 299 299 299 299 300 299 298 298 298 298 298 298 297 297 296 296 295 296 296 296 296 295 295 294 294 294 294 293 293 293 293 293 292 292 292 291 291 291 291 290 289 291 291
298 299 299 299 299 299 298 299 298 298 298 299 298 298 297 297 298 297 296 297 296 296 296 296 296 296 295 295 295 295 295 294 294 293 293 294 293 292 293 292 292 292 292 292 292 291 291 291 290 290 290 290
298 298 298 298 297 296 298 298 297 297 298 297 297 297 297 297 296 296 296 295 295 296 295 295 296 295 295 295 295 295 294 294 294 293 293 293 292 292 292 292 292 292 292 292 292 291 290 290 290 290 290 290
298 298 297 297 297 297 297 297 297 297 296 296 296 296 296 296 295 295 295 295 295 295 295 295 296 295 295 294 294 294 294 293 293 292 292 292 292 292 292 291 292 291 291 291 291 291 290 290 290 290 290 290
296 296 295 296 296 296 296 296 296 296 296 296 295 295 296 296 296 295 295 294 294 294 294 294 295 294 295 294 294 294 294 294 293 293 292 292 292 292 291 291 291 291 291 291 291 291 291 290 290 289 290 290
295 294 293 294 294 293 294 294 293 293 293 293 293 294 294 294 294 294 294 294 294 294 293 293 293 294 294 294 294 295 294 293 293 293 293 293 293 293 292 291 291 292 291 290 290 291 290 290 290 289 290 289
293 293 293 293 293 293 294 294 293 293 293 293 293 294 294 293 293 293 293 293 293 293 293 293 293 293 293 294 294 294 294 293 293 293 292 292 293 292 292 291 291 292 291 291 291 291 290 290 290 290 290 289
292 293 293 293 293 294 294 293 293 293 293 293 293 293 294 293 293 292 292 292 292 292 292 293 293 293 293 293 294 293 293 292 292 292 291 291 291 292 291 291 291 291 290 290 291 291 291 290 290 290 290 289
291 292 292 292 292 293 293 293 292 292 293 292 293 293 292 292 292 292 292 292 291 291 291 291 291 292 292 293 293 292 292 292 292 291 291 291 290 290 290 290 290 290 290 290 290 290 291 290 290 290 290 290
291 291 291 292 293 292 293 292 292 292 292 292 292 291 291 291 291 291 291 291 291 290 290 290 290 291 291 291 291 291 291 291 290 291 291 291 291 289 289 290 289 290 289 290 289 290 290 290 290 290 290 289
291 290 290 290 291 291 291 291 291 291 291 291 291 290 289 290 290 291 290 290 290 289 289 289 289 290 290 290 290 289 290 289 290 290 290 290 290 290 288 289 289 289 289 289 289 290 290 290 290 289 289 289
289 290 290 290 290 290 289 290 290 290 290 289 289 289 289 289 290 290 289 289 288 288 288 288 288 289 289 289 288 288 288 288 289 289 289 288 289 289 288 288 288 288 288 289 289 289 289 289 289 289 289 289
288 288 288 289 289 288 288 289 289 289 288 288 288 288 288 289 289 288 287 288 287 287 287 287 287 287 287 287 287 287 287 287 288 288 288 287 287 288 288 288 288 288 288 288 288 288 288 288 288 289 289 289
286 286 286 285 286 286 286 287 287 288 287 287 286 287 287 287 287 286 285 285 285 285 285 285 285 285 286 285 285 285 285 285 285 285 285 286 286 286 287 288 288 288 287 287 287 287 287 288 288 289 289 289
284 283 283 284 284 283 284 285 286 285 286 286 285 286 286 285 285 284 283 283 283 283 283 283 283 283 283 283 283 283 283 284 284 285 285 285 285 285 284 285 287 288 288 285 284 286 286 287 289 289 289 288
283 283 283 282 283 283 283 284 284 283 284 284 284 284 285 284 283 282 282 282 282 282 282 281 282 282 282 282 282 282 282 282 283 283 283 284 283 284 283 283 285 286 286 283 282 282 282 284 286 287 288 288
281 282 282 281 282 282 282 284 284 283 283 282 281 281 282 281 281 280 280 281 281 281 281 281 281 281 281 281 281 281 281 281 281 282 282 282 281 281 283 283 285 285 286 282 283 283 281 280 281 285 287 288
280 281 281 280 281 280 280 280 281 281 280 279 279 278 279 279 279 279 279 280 280 280 280 280 280 280 279 279 279 279 279 279 279 280 281 281 281 281 279 281 282 284 285 284 282 278 279 279 280 277 280 283
278 278 278 277 278 278 278 278 278 277 277 277 277 277 277 277 278 278 278 279 279 279 279 279 279 278 277 277 277 278 277 277 278 279 280 280 280 279 279 278 280 281 283 283 284 281 279 277 277 278 281 282
277 276 276 274 274 273 274 274 274 274 274 275 275 275 277 277 278 278 278 278 278 279 279 278 277 276 275 275 276 276 276 276 277 278 278 279 278 278 279 278 278 278 281 282 283 284 283 282 277 278 279 279
276 275 275 274 274 274 273 273 274 275 276 275 276 276 276 277 277 278 277 277 278 278 278 277 276 275 275 275 275 276 275 275 276 277 277 277 277 277 278 278 276 277 278 280 282 283 283 283 283 282 279 277

ECMWFFLT2_sfc_thetae_084.txt.gz
Theta_e
310 310 310 310 309 309 308 308 307 306 306 305 305 304 303 303 302 302 302 303 303 302 303 304 306 307 306 306 305 305 305 305 306 305 305 305 304 304 302 301 300 300 300 300 300 298 297 296 297 297 297 292
308 308 307 307 307 307 307 306 306 306 305 304 303 302 301 300 300 300 300 301 301 301 300 301 302 304 305 305 304 304 303 303 304 304 304 304 303 302 301 300 299 298 298 299 298 297 296 295 296 297 298 290
305 306 305 305 305 304 305 305 305 305 305 304 302 301 300 299 298 298 298 298 298 298 298 298 300 300 303 304 303 302 302 301 302 303 302 302 302 301 300 298 297 297 297 297 297 296 295 295 295 297 297 289
301 305 305 305 305 305 304 304 303 303 303 303 302 302 301 300 299 297 296 299 297 297 297 296 296 298 301 302 302 301 300 300 300 301 301 301 300 299 298 297 297 296 296 297 296 296 295 295 297 293 288 288
301 303 306 304 304 304 305 304 304 305 304 302 303 302 301 302 299 297 297 296 296 298 296 297 296 296 298 299 300 300 299 298 298 299 300 299 298 298 297 296 296 296 296 297 296 295 295 296 293 289 288 288
303 302 304 302 302 301 303 304 302 301 299 305 300 304 301 299 299 298 296 296 300 295 297 296 297 296 296 298 299 299 298 297 297 298 298 298 298 297 297 297 293 294 297 297 296 295 295 292 288 288 288 287
302 299 298 300 299 301 301 302 299 297 297 298 299 300 299 297 296 297 295 295 296 295 298 298 299 297 298 298 298 298 297 296 297 298 298 297 297 297 296 293 291 290 290 291 297 296 293 288 287 288 288 288
298 298 297 297 297 296 297 297 299 298 297 297 298 298 296 296 297 296 294 302 303 300 295 294 300 299 298 297 297 297 297 297 297 299 299 298 297 298 295 289 288 288 287 287 288 287 286 286 287 287 287 286
294 295 294 296 296 296 295 297 296 296 297 297 296 296 295 296 295 296 295 295 294 293 294 293 294 294 293 292 291 296 292 292 294 296 292 293 296 292 291 290 288 288 287 287 287 285 286 286 285 285 287 286
294 294 294 295 294 295 295 298 295 296 296 296 295 296 294 295 295 295 295 294 293 293 293 293 292 292 292 292 292 295 291 290 291 290 290 291 290 289 288 289 288 288 288 286 285 285 285 285 285 284 284 285
294 295 294 293 294 295 295 295 295 294 294 295 294 294 294 293 292 293 292 292 292 293 292 292 291 290 290 291 290 291 290 290 290 289 289 289 289 288 288 288 288 288 288 286 286 286 285 285 285 284 285 285
294 294 295 296 295 294 296 294 293 293 294 295 293 294 294 294 292 291 290 292 291 291 291 292 291 290 290 290 290 290 290 289 289 289 288 289 288 288 287 287 288 287 288 287 287 286 286 285 284 284 284 284
293 294 294 293 292 292 298 293 292 292 293 292 292 293 293 293 291 290 290 290 290 290 291 291 291 290 290 290 290 290 289 289 288 288 288 288 287 287 287 287 287 287 287 286 285 285 285 285 285 284 285 284
293 293 292 292 292 292 295 291 292 292 291 291 291 290 291 292 291 290 289 289 289 289 289 289 290 290 290 289 289 289 289 289 289 288 287 287 288 287 287 287 288 287 286 286 286 285 285 285 285 284 284 284
290 290 290 290 289 290 290 290 290 289 289 289 290 290 290 290 291 290 289 289 289 289 289 289 289 289 290 288 289 290 289 289 289 288 287 288 287 287 287 287 287 288 287 286 286 286 286 286 286 285 285 284
290 289 290 290 289 289 290 290 289 288 289 290 289 290 290 289 289 291 288 289 289 289 288 288 288 289 289 289 288 290 289 289 289 288 289 289 289 288 288 288 287 288 286 286 286 286 286 285 286 284 285 285
289 290 290 289 289 290 292 289 289 289 289 289 290 290 290 289 289 289 288 287 288 290 287 287 288 288 289 289 289 289 289 289 289 288 287 288 288 287 287 287 287 289 288 286 286 286 286 286 285 285 284 285
288 289 289 289 288 290 289 288 287 289 288 289 289 288 289 288 288 288 287 288 287 287 286 287 287 287 287 288 288 288 288 287 287 287 287 287 287 289 288 285 286 285 286 285 285 286 286 285 285 285 285 284
288 288 288 287 287 288 288 288 287 287 288 287 287 287 286 288 288 288 288 288 287 286 286 286 286 286 286 287 287 286 286 286 286 286 286 287 286 286 285 285 286 286 286 285 286 285 286 286 286 285 284 284
287 287 287 286 289 287 287 286 287 286 287 286 286 286 286 287 287 288 287 287 286 285 285 285 285 285 286 286 286 285 285 286 285 285 286 286 286 284 284 286 285 285 285 285 285 286 286 285 287 285 284 285
285 286 286 286 286 287 286 285 285 285 286 285 285 284 284 285 287 285 285 285 285 284 284 284 284 284 285 285 284 283 284 284 285 285 286 285 286 285 283 284 284 284 284 285 285 285 285 285 286 285 284 285
284 284 285 284 285 286 285 285 285 284 284 284 283 284 284 285 285 284 283 282 283 282 283 283 282 283 283 283 283 282 282 283 284 284 284 283 284 284 283 282 283 283 284 285 285 285 285 285 285 285 285 285
283 283 283 283 284 283 284 283 283 283 282 283 282 282 284 284 283 282 281 281 281 280 281 280 281 281 281 281 280 280 281 281 282 282 281 281 282 283 283 282 283 283 284 284 284 284 284 285 285 285 286 286
281 281 281 280 281 281 282 282 283 283 282 282 281 282 282 282 281 280 280 280 280 279 280 279 279 280 280 280 279 278 278 278 279 279 279 280 281 281 282 283 283 283 282 282 282 283 284 284 285 285 286 286
279 278 279 278 278 278 279 281 282 281 281 281 280 280 280 280 279 279 279 280 279 278 279 279 279 279 279 278 279 278 278 279 279 280 280 279 280 280 279 279 281 281 282 280 279 281 281 282 283 285 286 285
278 278 278 277 277 278 278 278 279 278 279 279 279 279 279 278 278 278 278 279 278 279 278 277 278 278 277 276 276 277 278 278 280 278 278 278 277 278 278 277 279 280 280 278 277 277 278 278 281 283 283 283
277 277 278 277 276 277 277 278 279 279 279 278 278 278 278 278 278 278 278 278 279 278 278 277 277 277 276 275 276 275 275 276 276 277 277 277 277 276 278 278 280 279 279 276 278 278 277 275 276 279 279 280
277 277 278 278 277 277 277 276 278 278 278 277 277 277 278 277 277 278 278 278 278 278 278 278 276 276 275 274 275 275 274 274 274 275 276 277 277 277 274 275 276 280 279 278 277 272 275 275 276 273 274 277
277 277 276 276 276 277 276 276 276 275 275 276 276 276 276 276 277 278 277 278 277 277 277 277 276 275 274 273 274 274 274 273 274 275 275 275 275 274 273 273 275 277 278 278 279 276 275 272 270 271 275 277
276 275 274 274 273 272 273 272 273 273 273 273 273 273 275 275 276 277 277 277 276 276 277 275 274 274 273 273 273 274 273 273 274 274 273 273 273 273 274 273 273 273 277 278 279 279 278 277 273 274 275 276
275 274 274 273 273 273 272 271 273 274 274 273 273 274 273 274 275 276 275 275 275 275 275 275 273 273 272 272 272 273 273 272 273 273 273 274 273 273 274 273 271 272 273 275 275 277 277 277 278 277 276 273

ECMWFFLT2_sfc_thetae_087.txt.gz
Theta_e
311 311 311 311 310 310 309 309 308 308 307 306 305 304 303 303 302 302 303 303 304 303 303 304 305 306 307 307 307 306 305 305 305 306 306 306 306 305 304 303 302 301 301 301 301 300 299 298 298 299 299 288
311 310 310 309 309 309 308 308 307 306 305 304 302 301 300 300 300 300 301 301 301 302 301 301 302 302 304 305 305 305 304 303 303 303 304 305 304 304 303 303 302 301 300 300 300 299 299 298 297 299 298 286
305 308 307 307 307 307 307 307 307 306 304 302 301 301 300 299 299 298 299 299 300 300 300 299 299 300 302 303 303 304 303 303 302 302 303 303 303 302 302 302 301 300 299 299 299 299 298 298 298 298 297 286
300 306 306 306 306 306 305 305 304 303 304 303 303 302 302 301 298 298 297 300 297 299 299 298 297 299 301 301 302 302 302 302 302 302 302 302 302 301 301 300 300 299 299 300 299 298 297 297 298 290 285 285
299 303 307 306 304 304 303 303 303 304 304 304 304 304 306 302 299 295 294 295 293 300 296 298 297 298 299 300 301 301 301 301 301 301 302 301 301 300 300 299 298 298 298 299 298 298 297 297 289 287 286 286
301 301 303 299 299 300 302 305 304 300 297 304 297 305 300 296 297 296 294 293 301 296 297 297 299 298 299 300 301 300 300 299 300 301 301 301 301 300 299 298 291 291 296 298 297 297 296 292 286 284 285 285
300 299 298 298 298 299 305 302 300 296 296 293 295 297 294 295 293 294 293 293 295 294 302 297 300 300 300 300 300 299 299 299 299 300 301 301 300 299 299 294 288 286 285 286 296 298 292 286 284 284 284 284
295 295 295 296 296 295 294 297 296 294 293 294 294 294 294 292 293 293 292 305 304 301 291 292 302 301 301 300 300 299 299 301 299 300 300 299 299 301 295 288 287 286 284 285 283 283 283 282 283 283 284 284
291 291 292 292 292 292 292 293 294 294 293 293 292 292 292 291 292 292 292 291 292 291 291 289 290 291 290 290 289 298 290 290 290 294 291 289 293 290 290 288 287 285 285 285 285 284 284 283 283 283 284 283
294 292 291 292 293 293 293 293 292 292 291 291 291 291 292 291 289 289 289 289 289 290 289 289 289 288 288 287 288 292 290 288 287 287 287 287 287 288 287 285 285 285 288 286 284 285 283 284 283 282 282 283
292 291 292 292 294 292 291 291 291 291 290 290 291 290 292 290 289 289 289 289 288 289 288 289 289 289 289 289 288 289 288 287 287 286 286 285 286 285 286 286 285 286 285 285 285 285 284 284 284 283 282 283
291 290 290 292 292 291 294 291 290 289 289 290 289 290 290 291 288 288 288 288 288 288 288 288 288 288 288 288 288 289 289 287 286 285 285 285 286 286 286 285 285 285 285 285 284 284 285 284 284 283 282 282
289 289 289 288 288 289 293 288 288 288 289 288 289 289 289 290 288 288 287 287 287 288 288 288 288 288 287 287 287 288 287 287 286 286 285 286 286 286 286 285 285 285 285 284 285 284 284 284 284 283 283 282
288 288 288 288 287 289 290 287 288 287 288 288 288 288 288 288 289 287 286 286 287 287 287 287 287 287 287 288 288 287 287 287 287 286 286 286 286 286 286 286 286 287 286 286 285 284 284 284 284 284 283 283
288 289 288 288 288 288 288 288 288 287 288 288 288 287 287 287 288 288 286 286 286 286 286 286 286 286 287 287 287 287 287 287 287 286 286 286 286 285 285 286 286 286 286 285 285 285 285 285 285 284 284 283
287 287 287 288 287 287 287 288 287 287 287 288 287 287 286 286 286 288 286 286 286 286 285 285 285 285 286 286 286 286 286 286 286 286 286 286 286 286 286 285 285 286 285 285 285 285 285 285 284 283 284 284
285 285 286 286 286 287 287 286 286 285 285 285 285 286 286 285 287 286 285 285 285 285 283 284 284 284 285 285 285 285 285 285 285 285 285 285 286 286 286 285 285 286 285 285 285 285 285 284 284 284 284 283
284 284 284 285 285 286 286 285 285 285 284 285 284 285 285 285 286 285 284 284 283 283 283 283 283 283 283 284 284 284 284 284 284 284 284 284 284 286 285 283 284 283 284 283 283 284 284 284 284 284 283 283
283 284 283 283 284 283 284 284 283 283 283 283 283 284 284 285 285 283 282 282 282 282 281 281 281 282 282 283 283 282 283 283 283 282 283 284 283 283 282 283 284 283 283 283 283 284 285 284 284 284 284 284
282 282 282 282 285 283 283 283 283 283 282 282 282 283 283 283 284 281 281 281 281 280 280 280 280 280 281 281 281 281 281 282 281 281 282 282 282 281 281 282 282 282 282 283 283 284 284 284 285 284 283 283
281 281 281 281 282 282 282 282 282 282 282 281 281 281 282 282 283 280 279 280 280 279 279 279 279 279 280 280 279 279 279 279 281 280 280 279 281 280 280 280 280 281 282 282 283 283 283 284 285 284 284 284
280 281 280 280 280 282 281 281 281 281 281 280 280 280 281 280 280 280 279 279 279 278 279 279 278 278 279 279 278 278 278 278 278 278 278 278 279 280 279 279 280 280 281 282 282 283 283 284 284 284 284 285
280 280 280 279 280 279 279 279 280 281 279 279 278 279 280 279 279 279 279 279 279 278 278 278 278 278 278 277 276 276 276 276 277 278 278 277 277 279 279 279 279 280 280 281 281 281 282 282 283 283 284 285
278 279 278 277 278 278 279 279 280 280 278 278 278 279 279 278 278 278 279 279 278 277 278 277 277 277 277 276 275 275 275 275 275 275 276 276 277 277 278 279 279 279 278 278 278 280 281 281 282 282 283 283
277 276 277 277 276 276 277 278 278 278 279 278 278 278 278 278 277 278 278 279 278 278 278 278 277 276 275 275 275 275 274 275 275 276 276 275 276 276 276 276 278 278 278 276 276 278 278 279 280 282 284 283
277 277 276 276 275 276 276 277 276 276 278 278 278 278 278 278 277 277 276 278 277 278 277 277 276 275 274 274 273 274 274 274 276 274 274 275 274 276 275 274 277 277 277 274 274 273 274 276 278 280 281 281
276 277 277 277 276 276 276 277 277 277 278 277 276 276 277 277 276 276 276 277 278 276 276 276 274 274 273 273 274 272 272 273 273 273 273 274 273 272 274 274 276 275 276 273 274 274 274 273 274 277 278 277
277 277 277 277 277 276 276 275 277 277 277 276 276 275 276 275 275 275 276 276 276 276 275 275 273 273 273 272 273 272 271 271 272 272 272 272 272 272 269 271 272 275 275 275 274 270 272 272 273 271 274 276
276 276 275 276 276 276 276 276 275 275 274 275 275 275 274 273 274 275 276 276 275 275 275 274 273 272 272 272 272 272 271 271 272 272 272 272 272 271 270 269 271 272 274 274 276 273 271 269 268 269 273 274
276 275 274 273 272 271 272 272 272 271 272 272 272 272 273 273 274 274 274 274 274 274 275 273 273 272 272 271 271 271 271 271 272 271 271 271 271 270 271 270 269 269 273 273 274 274 274 273 269 270 272 273
275 273 273 273 272 272 272 271 271 273 273 273 273 273 272 272 273 273 273 273 273 274 274 273 272 272 271 271 271 271 271 271 271 271 271 272 271 270 271 270 268 269 269 272 272 274 274 274 274 273 272 269

ECMWFFLT2_sfc_thetae_090.txt.gz
Theta_e
312 312 312 311 311 310 309 309 308 308 306 304 303 303 303 303 303 303 304 304 304 304 303 303 303 304 305 306 307 307 306 305 305 305 306 306 306 305 305 304 304 303 303 303 303 302 301 300 300 300 298 286
312 311 310 310 309 309 308 308 307 306 304 303 302 303 301 301 301 302 302 303 303 303 302 301 301 303 304 304 305 305 305 305 305 304 304 304 304 304 303 303 303 302 302 303 303 302 300 300 299 298 297 284
307 310 309 309 308 308 308 307 306 304 303 303 304 304 302 300 300 300 301 301 301 302 301 300 300 302 303 304 304 304 304 304 304 304 304 304 303 303 302 302 301 300 301 302 302 301 300 299 297 296 292 284
301 308 307 307 307 307 306 305 304 304 305 304 304 304 304 304 300 302 297 301 297 301 300 299 299 301 302 303 304 303 302 303 303 303 303 303 303 302 302 301 299 298 299 299 299 299 299 298 298 286 283 283
299 303 308 305 305 305 304 303 304 305 306 305 305 305 304 301 296 293 293 293 292 302 295 300 300 301 301 303 303 302 301 301 302 302 303 303 302 302 300 299 297 297 297 298 297 297 296 298 288 284 284 284
300 301 303 298 298 299 301 304 302 298 297 299 294 297 293 292 294 293 292 291 301 295 296 296 301 302 302 302 302 301 301 300 301 301 301 301 300 300 299 299 288 289 297 297 296 296 296 287 283 283 283 282
299 297 296 296 296 299 303 298 295 292 293 291 291 290 290 292 291 291 292 295 297 296 297 296 300 300 300 301 301 300 300 300 300 300 300 299 299 299 299 290 286 285 282 282 296 297 286 282 282 281 282 282
291 291 291 291 291 292 292 292 292 290 290 290 290 290 289 289 290 289 288 294 295 293 289 290 294 295 295 297 297 299 299 300 299 300 301 301 300 300 293 286 285 285 282 282 281 281 282 281 281 281 282 282
292 291 291 291 291 291 290 290 289 289 289 289 289 289 289 289 289 288 288 288 287 287 287 287 287 287 287 288 287 296 289 289 289 291 287 288 289 285 287 287 286 283 283 285 284 282 282 281 281 282 283 281
291 290 290 290 290 289 289 289 288 288 288 288 288 288 289 289 287 287 287 287 287 287 287 287 286 286 287 287 287 289 287 286 286 286 285 285 285 285 284 283 283 283 286 284 283 284 282 283 282 282 282 281
289 288 288 289 291 289 288 288 287 287 287 287 287 287 289 287 286 286 286 286 286 286 286 286 286 286 286 286 286 287 285 286 285 284 284 285 285 284 284 284 284 284 283 283 283 283 283 282 283 283 282 281
288 288 287 289 290 288 291 288 287 286 287 287 286 287 287 289 286 285 285 285 285 285 285 285 285 285 285 286 285 286 286 285 285 285 285 285 285 285 285 285 284 284 284 284 282 282 283 283 283 283 282 282
287 287 287 287 287 287 291 286 286 286 286 285 286 286 286 288 286 285 284 284 284 284 284 284 284 284 285 285 285 285 285 285 284 284 284 284 284 284 284 284 284 285 285 284 285 284 283 282 283 283 283 282
285 285 285 285 285 286 288 285 286 286 285 285 285 284 285 286 286 284 284 283 283 283 283 283 283 284 284 284 284 284 283 284 283 283 283 284 284 284 284 284 285 285 284 284 285 284 284 283 283 283 282 282
283 284 284 284 284 285 284 285 285 284 284 284 284 284 285 285 285 284 283 282 282 282 282 282 282 282 283 283 283 283 283 283 283 283 282 283 283 283 283 284 284 284 283 283 284 284 283 283 283 283 283 282
282 282 283 283 283 283 284 285 283 283 283 284 283 284 284 283 283 284 281 281 281 282 280 281 281 281 281 281 282 282 282 282 282 282 282 283 284 283 283 283 283 284 283 282 283 283 283 283 283 283 283 283
281 281 282 282 282 283 284 283 283 282 282 282 283 283 283 282 282 282 280 280 280 281 279 280 279 279 280 280 281 281 281 281 281 281 281 281 283 282 282 281 282 283 282 282 282 282 283 283 283 283 283 282
280 280 281 282 281 282 282 282 281 282 281 282 282 282 282 281 281 280 279 279 279 279 278 278 278 278 279 279 280 280 280 279 280 279 280 280 280 281 280 279 280 281 280 281 282 282 282 283 282 282 282 282
280 280 279 279 280 280 280 281 280 280 280 280 280 281 280 281 281 279 279 279 278 278 278 278 277 278 278 279 279 278 278 278 278 278 278 279 278 278 278 279 280 280 279 280 281 281 282 282 283 283 283 283
279 279 279 279 282 279 279 279 280 279 279 279 278 279 278 279 280 279 278 279 279 277 277 278 277 277 278 277 277 277 277 277 276 277 277 277 277 276 277 278 277 279 279 279 280 281 281 281 282 282 282 282
279 279 278 278 279 279 279 278 278 278 278 278 278 278 278 278 280 278 278 278 278 277 277 278 277 277 276 276 275 275 275 275 276 275 276 276 277 276 276 276 276 278 278 278 279 280 280 280 282 281 282 282
278 279 278 278 278 280 279 278 278 278 277 277 277 277 277 277 278 279 278 278 278 276 278 278 276 276 276 275 274 274 274 274 275 275 275 274 275 276 275 275 276 276 277 278 278 278 278 279 280 280 281 282
278 278 278 277 277 277 278 278 278 278 277 276 276 276 277 277 277 278 277 277 278 276 277 276 276 275 274 274 273 273 273 273 274 274 274 273 274 275 275 276 276 276 276 276 277 277 277 279 279 280 280 282
276 276 277 276 276 276 277 277 278 278 277 276 276 278 277 277 276 276 277 277 276 276 277 276 275 274 274 273 273 272 272 272 272 272 273 272 274 273 274 275 275 275 275 275 275 276 277 277 277 277 279 279
275 274 275 276 275 275 276 276 278 277 277 277 276 277 277 277 276 275 275 277 276 276 276 276 274 273 273 273 273 272 272 272 272 273 273 273 273 272 272 272 274 274 275 273 273 274 274 274 276 279 280 279
274 275 274 274 273 274 274 274 275 275 276 277 277 276 276 275 275 274 274 276 276 276 275 273 273 272 272 272 272 272 272 272 273 272 272 272 270 272 271 270 272 273 273 271 271 270 271 273 276 278 278 278
274 274 275 274 274 274 273 275 275 274 276 276 275 275 275 274 274 273 274 275 275 275 275 272 272 272 272 271 273 271 270 271 270 271 271 271 270 270 271 271 273 272 273 269 271 271 272 270 272 274 276 277
275 275 275 274 274 274 274 273 276 275 274 273 273 273 274 273 273 273 273 274 273 274 273 272 271 272 272 271 272 271 270 270 270 271 271 270 270 270 267 269 269 272 272 271 270 265 269 269 270 268 273 272
274 275 273 273 273 273 273 273 272 271 271 272 273 273 271 271 273 272 273 273 272 273 273 272 271 271 271 271 271 271 270 270 270 271 271 270 270 269 268 267 269 270 271 271 272 269 268 265 266 266 270 270
275 274 272 271 271 269 270 269 269 269 269 270 270 270 271 271 271 271 272 272 272 272 274 271 271 270 270 270 270 270 270 270 270 270 269 270 270 269 269 268 267 267 270 271 271 272 271 271 266 267 268 269
275 272 271 271 270 270 269 268 269 269 270 270 271 272 270 270 270 270 270 270 270 271 272 272 271 270 270 269 269 270 270 269 269 269 269 270 269 269 270 269 266 267 267 270 270 272 271 271 271 270 268 264

ECMWFFLT2_sfc_thetae_093.txt.gz
Theta_e
314 313 312 312 311 310 310 310 307 306 305 307 308 307 306 305 304 305 305 306 306 306 305 304 305 306 307 307 307 307 306 306 307 306 307 307 306 306 305 305 303 303 304 304 303 303 302 301 299 298 297 285
313 312 312 311 310 309 309 308 307 306 306 308 309 308 307 306 304 304 304 304 304 305 304 303 304 306 306 307 307 307 306 306 306 306 306 306 306 305 304 304 302 302 302 302 301 301 301 301 298 297 296 284
307 311 311 310 309 309 307 307 308 309 308 307 305 305 304 304 304 304 304 304 304 305 304 303 304 306 307 307 308 306 305 305 305 305 306 306 305 304 304 303 301 300 301 301 301 300 299 298 296 296 290 283
301 309 308 308 307 307 307 306 305 304 303 302 302 301 301 300 296 297 297 302 299 302 302 303 302 305 306 306 306 305 304 304 304 304 304 304 303 303 303 302 299 298 299 299 299 299 298 297 296 285 282 282
298 301 302 300 304 303 302 301 301 300 298 296 296 296 296 294 291 291 292 292 293 297 295 299 301 302 304 305 305 304 303 303 303 304 303 303 302 301 300 300 298 298 298 298 298 298 297 297 285 284 282 282
293 292 295 293 293 294 294 296 295 292 291 293 288 293 290 289 290 289 290 291 294 291 293 293 299 299 301 302 303 304 302 302 303 304 303 303 302 301 299 300 288 289 295 298 297 297 297 287 282 282 282 282
291 291 290 290 290 291 293 292 291 288 290 288 288 288 288 290 288 288 288 290 292 291 293 292 295 297 298 299 300 301 299 300 301 302 302 302 301 300 299 289 284 284 282 282 294 296 286 281 281 281 282 282
290 290 289 289 289 288 288 287 288 287 287 287 288 288 287 287 288 287 286 290 291 290 287 287 291 293 293 293 294 297 291 294 295 297 297 297 297 292 288 286 284 284 283 283 282 282 281 282 282 281 282 282
289 289 290 289 288 287 287 287 286 286 286 286 287 287 287 287 287 286 285 285 285 285 285 285 285 285 285 286 285 292 285 286 286 287 284 285 287 284 285 284 284 283 283 285 283 282 282 282 282 282 284 281
290 289 289 289 289 287 287 286 286 285 285 286 286 287 287 287 285 285 285 285 284 284 284 284 284 284 284 284 284 287 284 284 284 284 284 284 284 284 284 283 283 283 285 283 283 283 282 282 282 282 282 281
287 287 287 288 289 287 286 286 285 285 284 285 286 286 287 285 284 283 283 283 283 283 283 283 283 283 283 283 283 285 283 283 283 283 283 283 283 283 283 283 283 283 283 282 282 283 282 282 282 282 282 281
285 285 285 287 288 287 289 286 284 284 284 285 284 286 286 286 283 282 282 281 282 282 282 282 282 282 282 283 282 283 283 282 282 282 283 283 283 283 283 283 283 283 283 283 282 282 282 282 282 282 281 281
283 283 284 284 284 285 288 283 283 284 284 283 284 284 284 285 281 281 280 280 280 280 280 280 281 281 281 281 281 282 281 282 281 281 282 282 282 282 282 282 282 284 283 282 283 282 282 282 282 282 282 281
282 282 282 282 282 284 285 282 283 283 282 283 283 282 282 283 282 280 279 279 279 279 279 279 280 280 280 280 280 280 280 281 281 281 281 281 281 281 281 281 282 283 282 282 282 282 282 282 282 282 281 281
281 282 281 282 281 282 282 282 283 282 282 282 282 282 281 281 281 281 279 278 278 278 278 278 278 278 279 278 279 279 279 280 280 280 279 280 280 280 280 281 281 281 281 281 281 282 281 282 282 281 282 281
280 280 281 281 280 281 281 282 280 280 281 283 281 281 280 279 279 281 278 278 278 279 277 277 277 277 278 277 278 278 278 278 279 279 279 279 280 279 279 279 279 280 280 279 280 280 280 281 281 281 281 281
279 279 279 279 279 280 282 280 279 279 279 280 280 280 279 279 279 279 278 277 278 279 276 277 277 277 278 277 277 277 277 277 277 277 277 277 279 277 278 277 278 280 279 278 279 279 280 280 280 281 281 281
278 278 279 280 278 280 279 279 278 280 278 279 279 278 278 278 279 278 277 277 277 276 276 277 276 276 276 276 276 276 276 275 275 275 275 276 276 277 277 276 276 277 277 278 278 278 279 280 280 280 280 280
279 278 277 277 278 278 278 279 278 277 277 277 277 278 276 277 279 278 277 277 277 276 276 276 276 276 275 275 275 274 275 274 274 274 274 276 274 274 275 275 276 277 276 277 277 278 279 278 279 280 279 280
277 277 277 277 280 278 277 277 277 277 276 276 276 277 276 277 278 277 276 277 277 275 275 276 275 275 275 275 274 274 274 274 273 274 274 274 274 273 273 275 274 276 275 276 276 277 277 277 279 278 278 279
277 277 277 277 277 278 277 276 276 276 276 276 276 276 276 276 278 276 276 276 276 276 275 276 275 275 274 274 273 273 273 273 274 273 273 273 274 274 273 273 273 274 274 274 275 276 276 276 277 277 278 278
276 277 277 276 276 279 276 276 276 276 276 275 275 275 275 276 276 276 275 275 276 275 277 276 275 273 273 273 273 272 272 272 273 273 273 272 273 274 272 272 272 272 273 274 274 274 275 275 276 277 277 278
276 276 276 276 275 275 276 275 275 276 275 275 275 275 275 275 275 275 274 275 276 275 275 274 274 273 273 273 272 272 271 271 272 272 272 271 272 273 272 272 272 272 272 273 273 273 274 276 275 276 276 278
274 274 275 274 274 274 274 274 276 276 274 275 274 276 274 274 273 273 274 274 275 274 275 273 273 272 272 272 272 271 270 270 271 271 271 271 271 271 272 272 272 272 272 272 272 273 274 274 274 275 276 276
274 273 273 273 273 273 273 274 275 275 274 275 275 274 274 273 272 272 272 275 273 274 274 273 272 271 271 271 272 271 270 270 271 272 271 271 271 270 270 270 271 271 272 270 270 271 271 272 274 277 278 277
274 274 274 273 272 272 272 272 272 272 274 274 274 273 273 272 272 271 272 274 273 274 272 271 271 271 271 270 271 271 271 271 272 271 270 270 269 270 270 268 271 271 271 267 268 268 268 271 273 276 277 277
273 273 274 273 273 272 272 273 273 273 274 273 272 272 272 272 272 271 271 272 273 273 272 271 270 270 270 270 271 269 269 269 269 270 269 269 268 268 269 269 271 270 270 267 269 269 269 267 269 272 274 275
274 274 274 275 273 273 272 271 275 272 271 271 271 272 272 271 271 271 271 271 270 271 271 271 270 270 269 269 270 269 268 268 269 269 268 268 269 269 265 267 268 270 270 269 268 263 266 267 268 265 270 269
274 275 273 272 272 273 272 272 271 270 270 270 271 272 271 270 271 271 271 271 270 271 272 270 270 269 269 269 268 269 268 268 268 268 268 268 268 267 266 266 267 268 270 269 271 267 266 262 265 264 267 268
275 275 273 271 271 269 269 268 268 268 268 268 268 269 270 270 270 270 270 270 269 270 272 270 270 269 268 268 268 269 268 268 267 267 267 268 268 266 267 267 266 265 269 270 269 270 270 269 263 264 265 267
276 273 271 271 270 270 269 268 269 268 269 269 269 271 270 269 270 270 269 269 269 270 270 271 270 269 268 268 267 270 268 267 267 267 267 268 267 267 268 267 264 265 266 268 267 269 269 269 269 269 266 260

ECMWFFLT2_sfc_thetae_096.txt.gz
Theta_e
314 313 313 313 313 312 311 311 310 310 309 309 308 308 308 308 308 308 307 308 308 308 308 308 310 310 310 310 310 310 309 308 308 308 309 308 308 307 308 306 305 304 304 304 303 302 301 300 299 298 298 284
311 311 311 311 310 309 309 309 308 308 307 307 307 306 305 304 304 305 305 305 306 307 307 306 308 310 310 310 309 309 308 308 308 308 308 308 307 306 305 305 304 302 303 303 302 302 301 300 298 297 296 283
304 307 307 307 307 306 306 305 305 305 304 303 303 302 301 299 299 299 301 301 302 303 304 304 304 307 308 308 309 307 307 307 307 307 307 307 307 306 305 304 303 301 301 302 301 301 300 299 297 296 290 283
295 302 304 304 304 304 303 303 302 302 301 301 299 299 298 297 292 293 293 298 294 299 300 300 300 304 307 307 307 306 306 306 306 306 306 306 306 305 304 303 301 300 300 301 300 300 299 298 297 284 281 281
293 296 297 298 301 301 301 300 299 298 296 294 295 294 294 292 288 288 289 289 289 294 292 297 298 300 302 304 305 304 303 303 305 306 306 305 304 303 302 300 297 298 299 300 299 299 298 297 285 284 282 282
290 290 292 289 290 291 291 293 293 291 289 291 287 291 288 287 288 286 287 288 291 288 290 291 296 297 298 300 301 301 300 299 302 303 303 302 302 301 299 297 286 287 292 295 298 297 296 286 283 283 283 282
289 288 288 287 287 288 291 290 288 287 288 286 286 286 286 287 286 285 286 287 289 288 290 289 293 294 295 296 297 297 295 296 297 299 299 299 299 298 295 286 284 284 283 284 292 291 285 282 283 283 283 283
288 288 287 286 286 286 286 285 286 285 286 286 286 286 285 285 286 284 283 287 288 287 284 284 288 290 290 290 291 293 287 291 292 293 293 294 294 290 287 284 284 284 283 284 283 283 283 282 282 282 283 282
288 287 287 286 286 285 285 285 285 285 285 285 285 285 284 284 284 283 282 282 282 282 282 282 282 282 282 283 282 288 282 283 283 284 283 283 285 283 284 283 283 283 284 284 283 283 283 282 282 282 283 281
288 287 286 286 286 285 284 284 284 284 284 284 284 284 284 283 282 281 281 281 281 280 281 281 281 281 281 281 281 283 281 281 281 281 281 282 282 282 282 282 282 282 284 282 282 282 282 282 282 281 282 281
284 284 285 286 286 284 284 283 283 283 283 283 283 283 284 281 280 280 279 279 279 279 280 280 280 280 280 279 279 281 280 280 280 280 280 280 281 281 281 281 282 282 282 282 281 282 282 282 282 282 281 281
283 282 283 286 286 284 286 283 282 282 282 282 282 283 282 283 279 279 278 278 278 278 278 279 279 279 279 279 279 280 279 279 279 279 279 279 280 280 280 280 280 281 281 281 281 281 281 281 281 281 281 281
281 281 282 282 283 283 285 281 281 282 282 281 281 281 281 282 278 278 277 277 278 277 277 278 278 278 278 278 278 278 278 278 278 278 278 278 278 279 278 279 279 281 280 280 280 280 280 281 281 281 281 281
280 280 280 280 281 282 283 280 281 281 280 280 279 279 279 280 279 277 277 277 277 277 277 277 277 278 277 277 277 277 276 277 277 277 276 277 277 277 277 278 278 279 278 279 279 279 280 280 280 280 280 280
279 280 279 281 279 280 280 279 280 280 279 279 279 279 278 278 279 278 277 276 276 276 276 276 276 276 277 276 276 276 276 276 276 276 275 276 276 276 276 277 277 277 277 277 278 279 279 279 279 279 280 280
279 278 279 279 279 279 279 280 277 277 278 280 278 278 277 278 277 279 276 276 277 277 276 276 276 276 275 275 275 276 275 275 275 275 275 275 276 275 276 276 276 277 277 276 277 277 278 278 278 279 279 279
277 278 278 278 278 279 280 278 278 276 277 278 278 277 277 277 278 278 277 276 277 277 275 276 275 275 276 275 275 275 275 274 274 274 274 274 276 274 275 275 275 277 276 275 276 277 277 277 278 278 278 278
276 277 278 279 277 279 278 277 276 278 276 278 278 277 276 276 278 276 275 276 275 275 275 275 275 275 274 274 274 274 274 273 273 273 273 274 273 275 274 273 274 274 274 274 275 275 276 277 277 277 277 278
278 276 276 276 277 277 277 277 276 275 276 275 276 276 275 276 278 275 275 275 275 275 275 275 274 274 273 274 274 273 273 273 272 272 272 273 272 273 273 273 274 274 273 273 273 274 275 275 276 276 276 277
276 276 275 276 279 276 276 276 275 275 275 275 275 276 275 275 276 274 274 274 275 274 274 274 273 273 273 273 273 272 272 272 272 272 272 272 272 272 271 272 271 273 272 272 273 273 274 274 276 275 276 276
275 276 275 275 276 276 275 274 274 275 275 275 274 274 274 274 276 273 273 274 274 274 274 273 273 272 272 273 272 271 271 271 272 271 272 271 273 272 270 271 271 271 271 271 272 273 273 273 275 274 275 276
275 275 276 275 275 278 274 274 274 275 274 274 274 273 273 273 274 274 272 273 274 273 276 273 272 271 272 272 271 271 270 270 271 271 271 270 271 272 270 270 270 270 271 272 272 272 272 273 273 274 275 275
275 275 275 275 274 274 274 273 274 275 273 274 274 273 273 273 272 274 272 273 273 273 273 271 271 271 271 271 271 270 270 270 271 271 271 270 270 271 270 271 270 270 271 271 271 271 272 273 274 274 274 276
274 274 276 273 273 273 274 272 276 275 273 274 273 275 273 272 271 272 274 272 272 272 273 271 271 270 271 270 270 269 269 269 269 270 269 269 269 269 270 271 270 270 270 270 269 271 272 272 273 273 275 275
273 273 273 273 272 273 272 274 275 273 273 274 274 273 273 273 272 271 272 273 271 272 272 271 270 270 270 270 270 269 269 269 269 270 269 269 269 269 268 268 269 269 270 268 268 270 270 271 273 275 277 277
274 274 273 272 273 272 272 272 272 272 273 274 273 273 273 273 271 271 271 272 272 273 271 270 270 270 269 269 269 270 270 270 270 269 268 268 267 269 268 266 269 268 269 265 266 266 267 270 272 274 276 276
273 273 275 273 273 272 272 272 273 272 275 273 271 271 272 272 271 271 271 271 272 272 271 270 270 269 269 268 270 268 268 268 267 268 267 267 267 266 267 267 269 268 268 265 267 267 268 265 269 272 272 273
273 274 273 274 273 273 272 271 274 272 271 271 270 271 272 271 271 271 270 271 271 271 271 270 270 269 269 268 269 268 267 267 267 267 267 267 267 267 264 266 266 269 268 267 267 261 264 265 267 262 268 268
275 275 274 273 273 273 272 272 271 270 270 270 271 271 271 270 271 271 271 270 270 271 271 270 270 269 269 268 268 269 267 267 266 267 267 267 266 265 265 264 266 266 268 267 269 265 264 260 262 260 265 266
275 275 273 272 271 269 269 268 268 268 268 269 268 268 270 270 270 270 270 270 270 270 271 270 270 268 268 268 268 269 267 266 266 266 266 267 266 265 266 265 264 264 267 268 267 268 268 267 261 262 263 265
276 273 273 272 271 270 270 269 269 269 269 269 269 270 269 270 269 270 268 269 269 269 270 270 269 268 268 268 267 269 267 266 266 266 266 267 266 266 267 266 262 263 264 266 266 267 267 267 267 267 264 259

ECMWFFLT2_sfc_thetae_099.txt.gz
Theta_e
313 313 313 312 312 311 310 310 309 309 309 309 309 309 308 307 306 306 307 308 309 308 308 309 310 310 310 310 310 310 309 310 310 310 310 310 309 309 308 306 305 305 305 305 304 303 302 301 300 299 297 293
311 311 310 310 309 309 308 308 308 307 307 306 305 304 304 303 302 303 304 304 305 306 306 305 307 309 309 310 309 308 308 309 310 309 310 309 308 307 305 304 304 304 304 304 304 303 302 300 299 298 296 293
307 308 308 308 307 307 306 306 306 305 304 303 302 301 299 299 298 299 299 300 301 303 303 303 303 306 307 308 307 306 306 307 307 308 308 308 306 305 304 303 302 302 303 303 303 302 301 299 297 296 293 292
297 303 305 304 304 303 303 302 301 301 301 300 298 298 296 295 292 293 293 296 294 298 299 299 299 302 305 305 305 304 304 305 305 306 306 305 304 303 301 300 299 299 301 301 301 300 299 298 295 291 290 291
294 294 295 296 299 299 299 298 297 296 295 294 295 293 292 291 289 290 290 290 290 293 292 296 296 298 299 302 302 300 300 301 302 303 303 302 302 300 298 297 294 295 297 298 299 298 297 295 291 290 290 290
290 290 291 290 291 292 292 293 292 291 289 290 288 290 288 288 288 288 289 289 289 289 290 291 294 294 295 297 298 297 297 296 299 299 300 299 298 297 295 293 289 289 291 293 295 294 293 290 290 290 290 290
290 289 289 288 288 289 290 290 289 289 288 288 287 287 287 287 286 286 287 287 287 287 288 289 291 291 292 293 295 293 292 293 294 295 295 295 295 294 292 288 288 288 289 289 291 291 289 289 289 289 289 289
289 288 288 288 288 288 287 287 287 287 287 287 286 286 286 285 285 285 284 285 286 285 285 285 287 288 287 288 290 289 286 288 290 290 290 291 290 288 287 286 286 286 287 287 288 288 288 288 288 289 289 289
289 288 288 287 287 287 287 286 286 286 286 286 286 285 285 284 284 284 283 283 283 283 284 284 284 284 283 284 284 286 283 284 284 284 284 284 285 285 285 285 285 285 286 286 286 286 287 287 288 288 288 288
289 288 287 287 286 286 286 286 285 285 285 285 285 285 284 283 283 282 282 282 282 283 283 283 282 282 282 282 282 283 282 282 283 282 282 283 283 283 283 284 284 284 284 284 284 285 285 286 286 286 287 287
287 287 288 288 287 286 285 285 284 283 283 283 284 284 284 282 281 281 281 282 282 281 282 282 282 282 282 281 281 282 281 281 281 281 281 281 282 282 282 283 283 283 283 283 283 284 284 285 285 285 286 286
285 285 286 287 286 286 286 284 283 283 283 283 282 283 283 282 281 281 281 281 281 281 282 281 281 281 281 281 281 281 281 280 280 280 280 280 281 280 281 281 282 282 282 283 283 283 283 284 284 284 284 285
283 284 284 284 284 284 285 283 283 282 282 282 282 282 283 282 280 280 280 280 280 281 281 281 281 280 280 280 280 280 279 279 279 279 279 279 280 280 280 280 280 281 281 282 282 282 282 283 283 283 284 284
282 282 282 282 283 283 283 282 282 282 281 281 281 281 281 282 281 280 280 280 280 280 280 280 280 280 279 279 279 279 278 278 278 278 278 278 279 278 279 279 279 280 280 280 281 281 281 282 282 282 283 283
281 282 282 282 282 282 281 282 282 281 281 281 281 281 281 281 281 280 280 280 280 280 280 280 279 279 279 278 278 278 278 278 278 277 277 277 278 277 278 278 278 279 279 279 280 280 280 280 281 281 282 282
281 281 282 282 281 281 281 281 281 280 281 281 280 281 281 280 280 281 280 280 280 280 279 279 278 278 278 277 277 278 277 276 277 277 277 277 278 277 278 277 277 278 278 278 278 279 279 279 280 280 281 281
280 281 281 281 281 282 281 281 280 280 280 280 280 280 280 279 279 279 279 279 279 280 279 278 278 277 277 277 277 277 277 276 277 276 276 277 277 277 278 277 277 278 277 277 277 278 278 278 279 280 280 280
280 281 281 281 281 281 280 280 280 280 280 280 279 279 279 279 279 278 279 279 279 279 278 278 277 276 276 276 276 276 276 275 276 275 275 276 276 276 276 275 276 276 276 276 276 276 277 278 278 278 279 279
280 280 281 280 280 280 280 280 279 279 279 279 279 278 278 278 278 278 278 279 278 278 278 277 276 275 275 276 276 275 275 275 275 275 275 275 274 275 274 275 275 275 275 275 275 275 277 276 277 278 278 279
279 279 280 281 280 279 280 279 279 279 278 278 278 278 278 278 278 277 277 278 278 277 277 276 275 275 275 276 275 275 274 275 274 274 274 274 275 273 273 274 274 275 274 274 274 275 275 276 277 277 277 278
279 278 278 279 279 278 279 278 278 278 278 278 277 277 276 277 277 276 277 277 278 277 276 275 275 274 275 275 274 274 274 274 274 274 273 273 274 273 272 273 273 273 273 273 274 274 275 275 276 276 277 278
279 279 278 279 280 279 277 278 279 278 278 277 277 276 276 276 277 276 276 277 277 277 276 275 274 274 274 274 274 273 273 273 274 274 273 272 273 273 273 273 272 272 273 273 273 274 274 275 276 276 277 278
279 278 278 278 277 277 277 278 278 278 277 277 277 276 276 276 276 276 276 276 277 275 274 274 274 274 273 274 273 273 273 273 273 273 272 271 272 273 273 272 272 272 272 272 272 273 274 275 275 276 277 278
278 278 279 277 277 276 277 277 278 277 277 277 277 277 276 276 275 276 275 275 276 275 274 273 273 273 273 273 273 272 272 272 272 271 270 270 271 271 272 272 272 272 271 272 272 273 274 275 275 276 277 277
277 277 277 277 276 276 276 277 276 276 277 276 276 276 275 275 275 276 276 275 275 274 274 273 273 273 272 273 272 272 271 272 271 271 271 270 271 271 270 270 272 271 272 270 271 273 273 274 277 278 278 278
277 278 278 277 277 275 276 276 276 275 276 276 275 276 275 275 275 275 275 275 275 274 273 273 272 272 272 272 272 272 272 271 271 270 270 270 269 271 269 269 271 270 271 269 269 269 270 273 276 279 278 278
277 277 278 276 277 276 275 276 276 276 277 276 274 275 275 275 274 274 274 274 275 274 273 272 272 272 271 271 272 271 270 270 269 270 269 269 269 268 269 270 271 270 271 267 269 270 270 269 271 274 275 275
277 277 277 277 277 276 275 275 276 275 276 275 273 273 274 275 274 274 274 274 274 274 273 273 272 272 271 271 271 270 270 269 269 269 269 269 269 268 266 269 268 270 270 269 269 265 268 267 269 267 272 270
277 277 276 276 276 276 275 275 275 274 273 273 273 274 274 274 274 274 273 273 274 274 273 273 272 271 271 271 270 271 270 269 269 269 269 269 268 267 267 267 268 268 270 269 271 268 267 266 267 266 268 269
278 277 275 274 273 273 272 272 272 272 272 272 272 273 273 273 274 273 273 273 273 274 273 272 272 271 271 271 270 271 270 269 269 268 268 269 268 267 268 267 267 266 269 269 269 269 270 269 265 265 266 267
279 276 276 275 274 275 274 274 274 274 274 273 273 273 273 273 273 273 272 272 273 273 273 272 272 271 271 271 270 271 270 269 268 268 268 269 268 268 269 268 265 266 266 268 268 269 268 268 269 268 266 262

ECMWFFLT2_sfc_thetae_102.txt.gz
Theta_e
312 312 312 312 312 312 311 310 310 309 309 308 308 307 307 306 305 306 307 308 308 308 308 309 309 309 309 309 308 308 310 309 309 309 309 309 308 307 306 305 305 305 305 305 304 303 301 300 299 298 298 298
311 311 311 311 310 309 309 308 308 307 306 305 304 304 302 302 301 302 303 304 305 306 305 304 306 308 308 307 307 307 307 308 308 308 308 308 306 305 304 303 303 303 304 304 303 302 300 299 298 297 297 298
308 308 308 307 307 307 306 306 305 304 303 302 301 300 299 299 298 298 299 299 302 302 302 301 302 305 306 305 305 305 305 306 306 306 306 305 304 303 302 301 301 300 302 302 301 300 299 298 296 296 297 297
305 305 305 304 303 302 302 301 301 300 300 298 297 297 297 296 296 295 295 296 296 298 298 298 298 301 304 303 303 302 302 303 303 304 303 303 302 300 299 298 298 298 299 299 299 298 297 296 296 297 296 297
299 299 300 300 300 300 299 298 297 297 296 295 295 294 293 294 295 295 294 293 293 294 294 295 295 297 299 300 299 299 298 299 300 301 301 300 299 297 296 296 295 295 296 297 296 296 295 295 296 296 296 296
297 297 298 297 297 296 296 296 295 295 295 294 295 293 293 293 293 293 293 292 291 292 292 292 293 293 295 297 296 296 295 295 297 297 297 297 296 295 294 293 293 293 294 294 294 293 293 293 294 294 294 295
296 296 296 296 295 295 295 295 295 295 294 294 294 293 293 292 292 292 291 290 290 291 290 290 290 291 292 293 294 293 292 293 294 294 295 294 294 293 292 292 291 291 292 292 292 292 292 292 293 293 293 294
296 296 296 295 295 295 294 294 294 294 293 293 292 292 292 291 291 291 291 289 288 289 291 291 289 289 289 289 290 290 290 290 290 291 291 291 291 290 290 290 290 290 290 290 291 291 291 291 291 292 292 292
295 296 295 295 294 294 294 293 293 292 292 292 292 291 291 291 291 291 290 291 291 291 291 290 290 290 290 290 290 288 289 289 289 289 289 289 289 289 289 289 289 289 289 289 289 289 289 290 290 291 291 291
295 295 294 294 293 292 292 292 291 291 291 291 291 291 290 290 290 290 290 290 290 290 290 289 289 289 289 288 288 288 288 288 288 287 287 288 287 287 287 288 288 288 288 288 288 288 289 289 289 289 289 290
295 295 294 294 293 293 292 291 291 290 290 290 290 290 290 289 289 289 289 289 289 288 289 288 288 287 288 288 287 287 287 286 287 286 286 286 286 287 286 287 287 287 287 287 287 287 288 288 288 288 289 289
294 294 293 292 292 291 290 290 290 289 289 289 289 289 289 288 289 288 288 288 288 288 288 287 287 287 286 286 286 286 286 285 285 285 285 285 286 285 285 286 286 286 286 286 287 286 287 287 287 287 287 288
292 292 292 292 291 290 290 290 289 289 289 289 288 288 288 288 288 288 288 287 287 287 287 287 287 286 286 286 285 285 284 284 284 284 284 284 284 284 284 285 285 285 285 286 286 286 286 286 286 286 287 287
291 291 291 291 290 290 290 289 289 289 288 288 288 287 287 287 287 286 286 286 286 286 286 286 286 286 285 284 284 284 283 283 283 282 283 283 283 283 284 284 284 284 284 285 285 285 285 285 285 286 286 286
290 290 289 290 290 290 289 289 289 288 288 288 287 286 286 286 286 286 286 285 286 286 285 285 285 284 284 283 283 283 282 283 283 282 282 282 282 282 283 283 283 283 283 284 284 284 284 284 284 285 285 285
289 289 289 289 289 288 288 289 288 287 287 287 286 286 285 285 285 285 285 285 285 285 284 284 283 283 283 282 282 282 282 281 282 282 282 282 282 283 283 282 282 283 282 283 283 283 283 283 283 284 284 284
289 289 289 289 289 288 288 288 288 287 286 286 286 285 285 285 285 285 284 284 284 284 284 283 282 282 282 282 281 282 281 281 282 281 281 281 282 282 282 282 282 283 282 282 282 282 282 283 283 283 284 284
288 288 289 289 288 288 287 287 286 286 286 285 285 285 284 284 284 283 283 284 284 283 283 282 282 281 281 281 281 281 281 280 281 280 280 280 281 281 281 280 281 281 281 281 281 282 282 282 282 283 283 283
288 288 288 288 287 287 287 287 286 285 285 285 284 284 283 283 283 283 282 283 282 282 282 281 281 280 280 280 281 280 280 280 280 280 279 279 279 280 279 280 280 280 280 280 280 281 281 281 282 283 283 283
288 287 287 287 286 287 287 286 286 285 285 284 284 283 283 283 282 282 282 282 282 281 281 280 280 280 280 280 280 279 279 279 279 279 279 279 279 277 278 279 279 280 279 279 279 280 281 281 282 282 282 283
287 286 286 286 285 286 286 285 285 284 284 284 283 283 282 282 282 282 281 281 281 281 280 280 280 279 279 279 279 279 278 278 279 278 278 278 278 278 277 278 278 278 278 278 278 279 280 281 281 282 282 283
286 285 285 285 285 285 284 284 285 284 284 283 283 282 282 282 281 281 281 281 281 280 280 279 279 279 278 279 278 278 278 278 278 278 277 276 278 278 277 277 277 277 277 277 278 278 279 280 281 281 282 283
285 285 284 284 284 284 283 284 284 284 283 283 283 282 282 282 281 281 281 280 280 280 279 279 279 278 278 278 278 278 278 278 278 277 277 276 276 278 278 277 277 277 277 277 277 278 279 280 280 281 282 283
284 284 283 282 282 282 283 283 283 283 283 283 282 282 281 281 281 281 280 280 280 279 279 278 278 278 278 278 278 277 277 277 276 276 275 275 276 276 277 277 277 277 276 276 277 278 279 280 280 281 282 282
284 283 283 283 282 282 283 283 283 282 283 282 282 282 281 281 280 280 280 279 279 279 278 278 278 278 277 277 277 277 276 276 276 276 275 275 276 275 275 275 277 276 276 275 276 278 278 279 281 282 282 282
284 285 285 284 283 284 283 283 282 282 282 282 281 281 281 280 280 280 280 279 279 279 278 278 277 277 277 276 277 277 276 275 275 275 274 275 274 276 274 274 276 275 276 274 273 273 274 277 280 282 282 281
284 285 286 285 285 284 284 284 285 283 283 282 280 280 280 280 280 279 279 279 279 278 278 277 277 277 277 276 276 275 275 275 274 274 274 273 273 273 274 274 276 274 275 272 273 274 274 274 274 277 279 280
285 285 285 285 284 284 284 283 282 281 281 281 279 279 279 280 279 279 279 279 279 278 278 278 277 277 277 276 276 275 275 274 273 274 273 273 273 273 271 273 273 275 274 274 273 270 272 272 273 271 275 276
285 284 283 283 282 282 281 281 280 280 279 279 279 279 279 278 279 279 279 278 279 278 278 278 277 277 276 276 275 275 274 274 274 273 274 273 273 272 271 271 273 273 274 273 275 272 270 270 271 272 273 273
284 283 282 281 280 279 279 279 279 279 279 278 278 278 279 279 279 278 278 278 278 278 278 277 277 277 276 276 275 275 275 275 274 273 273 273 273 272 272 272 271 271 274 273 273 273 273 272 269 269 271 271
284 283 283 282 281 282 281 280 281 282 282 281 280 280 279 278 278 278 278 278 278 278 278 277 277 276 276 276 275 275 275 274 273 273 273 273 273 272 273 272 270 271 271 273 272 273 272 272 272 272 270 267

ECMWFFLT2_sfc_thetae_108.txt.gz
Theta_e
315 315 315 314 314 313 312 312 311 310 309 308 308 307 307 306 306 306 306 306 306 306 306 307 307 307 307 307 307 307 307 308 307 307 307 306 306 305 305 304 304 305 305 304 303 302 302 302 302 301 301 295
313 313 313 312 311 311 310 310 309 308 307 306 305 304 303 303 303 303 304 304 304 304 304 304 305 306 306 306 305 305 306 306 306 306 305 305 305 304 304 303 302 303 303 303 302 301 301 301 299 299 300 292
309 310 310 309 309 309 308 308 307 306 305 304 303 302 301 300 300 300 301 301 302 302 302 301 301 304 305 304 304 304 304 304 305 305 304 304 303 302 302 302 301 301 301 301 301 300 300 299 298 298 297 292
305 307 308 307 306 306 305 304 303 303 301 300 300 300 299 299 298 297 296 299 297 299 298 298 298 301 303 303 303 302 301 302 303 303 303 302 302 301 300 300 299 299 299 300 300 299 298 297 297 291 290 291
302 303 304 304 304 303 302 301 301 300 299 298 298 298 298 298 294 293 292 293 293 296 294 295 296 297 299 301 301 300 299 299 301 301 301 300 300 299 298 297 296 296 297 298 298 297 296 296 290 290 290 291
300 299 299 297 296 297 298 300 300 297 296 299 294 297 295 292 292 291 290 291 295 292 294 293 295 295 296 298 298 298 297 297 298 299 299 298 298 297 296 295 289 290 295 295 296 295 294 289 288 288 289 289
298 297 296 296 296 297 299 298 297 295 295 293 294 293 292 293 291 291 290 290 292 294 294 293 294 294 295 296 296 296 295 295 296 296 296 296 296 295 294 289 286 286 286 286 293 294 288 286 286 287 288 288
297 296 296 295 295 295 295 294 295 294 293 293 293 293 292 291 292 292 290 295 294 293 293 294 295 294 293 293 293 293 293 292 293 293 293 293 293 293 290 286 285 285 285 284 285 285 284 284 285 286 287 286
295 296 295 295 294 294 293 293 293 293 292 293 292 292 291 291 292 291 291 291 290 290 289 289 288 288 287 288 286 291 285 285 287 287 286 285 288 284 285 285 285 284 284 284 285 284 284 284 284 284 286 284
296 297 294 294 293 293 293 294 292 292 292 292 291 291 291 292 290 290 290 290 290 289 288 287 286 286 286 285 285 287 284 283 284 283 283 283 284 283 283 284 284 283 285 283 283 283 283 284 283 283 283 283
295 295 294 294 293 292 292 292 291 290 290 291 291 291 291 290 289 289 288 288 288 288 287 286 286 285 285 284 283 285 283 283 283 282 282 282 282 282 282 283 283 283 283 283 283 283 283 283 283 283 282 282
294 294 294 294 295 294 294 292 290 289 289 292 289 291 289 291 288 288 287 287 287 287 286 286 286 285 284 284 283 284 283 282 281 281 281 282 282 281 282 282 282 282 282 282 282 282 282 282 282 282 281 282
294 294 293 292 292 291 295 291 290 289 290 289 289 289 290 291 288 287 286 286 286 285 286 285 285 284 283 283 282 283 281 281 281 281 281 281 280 280 280 281 281 282 281 281 281 281 281 281 281 281 281 281
293 293 292 292 291 290 293 290 290 290 288 287 287 287 289 289 287 286 285 285 285 285 285 284 284 283 283 281 281 281 280 281 280 280 280 280 280 280 280 280 281 281 280 281 281 281 280 281 281 280 280 280
293 293 292 292 291 290 290 290 291 290 289 288 287 287 287 287 287 286 285 284 285 284 284 283 282 282 282 281 280 280 280 280 281 280 280 280 280 279 279 280 280 281 280 280 280 281 280 280 280 280 281 280
293 292 292 291 290 290 290 290 288 288 288 289 286 287 286 286 286 287 285 285 284 284 283 281 282 281 281 280 280 280 280 280 280 281 281 281 281 281 280 279 279 280 279 279 279 279 279 280 280 279 280 279
292 292 292 291 290 290 291 289 289 288 288 287 286 286 286 285 285 286 285 284 284 286 281 281 282 281 281 280 280 280 282 281 280 279 279 279 280 279 279 279 279 282 279 278 278 278 278 279 279 280 280 280
290 290 290 290 289 290 289 288 287 288 287 287 285 285 285 285 285 284 283 283 283 283 282 281 280 280 279 279 280 280 280 278 279 278 278 279 277 281 278 277 278 278 277 277 277 277 278 278 279 279 279 280
290 290 290 289 289 288 288 288 287 286 286 284 285 284 283 284 285 284 283 283 282 282 281 281 280 280 279 279 280 279 279 278 278 278 277 278 276 276 277 277 278 278 276 277 277 277 279 278 279 279 279 280
290 290 289 289 290 288 288 287 287 285 285 285 283 284 283 283 283 283 282 282 282 281 280 279 279 278 279 280 279 278 279 279 277 277 278 278 277 275 275 277 276 276 276 276 277 277 277 277 279 278 278 279
288 289 289 289 288 288 288 286 285 284 285 285 284 283 282 283 283 282 282 282 282 280 280 279 279 278 279 280 278 278 277 277 279 276 278 276 278 277 275 275 275 275 276 276 276 276 276 277 279 278 279 279
288 288 288 287 288 289 287 286 285 285 284 284 282 282 282 283 283 282 281 281 281 280 280 279 279 278 278 278 277 277 277 276 276 276 276 275 276 276 275 274 274 274 275 277 277 276 276 277 277 277 278 279
288 287 287 286 287 286 286 286 285 284 283 282 283 282 283 283 282 283 281 281 281 279 279 278 278 278 278 278 276 276 276 276 277 277 275 275 274 276 275 275 274 274 276 276 275 275 276 276 277 277 278 280
286 286 285 284 284 284 285 285 284 284 283 283 282 283 283 282 281 282 281 281 280 280 279 277 277 277 278 277 276 276 275 275 275 274 275 274 275 274 275 276 275 275 274 274 273 275 277 276 276 276 278 278
286 285 284 283 283 283 284 284 284 284 283 283 282 283 283 282 282 281 281 281 280 279 281 278 277 277 276 276 277 276 276 275 275 275 274 275 276 274 273 273 275 274 275 272 271 273 273 274 276 278 280 278
286 286 285 284 283 283 283 283 283 282 283 283 284 283 283 282 282 281 281 281 280 280 278 277 277 276 276 276 276 276 276 275 278 275 274 274 272 274 273 272 274 274 273 270 270 269 270 272 274 277 277 278
286 286 286 285 284 284 282 284 284 283 284 283 283 282 282 282 281 281 280 280 281 279 278 277 277 276 276 276 277 276 274 275 274 274 274 273 272 271 273 273 275 273 273 268 271 271 270 269 269 273 274 276
287 287 286 286 285 285 284 283 284 284 284 283 282 281 282 281 281 281 280 280 280 279 278 277 277 277 276 276 276 275 274 274 273 274 273 273 274 273 269 270 271 273 273 272 270 265 269 267 269 266 270 270
286 286 285 285 285 284 283 283 282 281 281 282 282 281 280 281 281 280 280 280 279 279 278 278 277 277 276 276 275 276 275 274 274 274 274 273 273 272 270 270 270 272 273 272 273 270 268 265 266 267 268 270
287 286 284 283 282 282 281 281 281 280 280 280 280 280 280 280 280 280 279 279 279 279 278 278 277 277 276 276 276 276 275 274 274 274 273 273 272 272 272 270 270 269 274 273 275 272 271 270 267 267 268 268
286 285 284 284 283 283 282 281 282 281 281 281 280 280 279 279 280 280 279 279 279 278 278 278 277 277 276 276 276 277 275 274 274 274 273 274 273 272 274 271 269 270 270 272 272 273 272 272 273 271 268 265

ECMWFFLT2_sfc_thetae_111.txt.gz
Theta_e
317 316 316 316 315 315 314 313 312 311 310 310 309 309 308 307 306 306 306 307 307 307 308 308 308 307 307 307 307 307 307 307 307 307 307 306 306 306 305 305 305 305 305 304 303 302 301 301 301 301 300 291
315 315 314 314 313 312 312 311 310 309 308 307 307 306 305 305 304 304 304 304 304 304 304 305 306 306 306 306 306 306 306 306 306 305 305 304 304 304 303 303 304 303 304 303 302 301 300 299 299 299 298 289
311 313 312 312 311 311 310 309 308 307 306 305 304 304 303 303 302 302 302 302 302 302 302 302 303 305 305 305 304 304 304 305 305 304 304 304 303 302 301 301 301 302 302 302 301 300 298 297 297 297 293 288
306 310 310 310 309 309 308 307 306 305 304 303 302 301 300 299 298 299 298 300 297 299 299 299 299 302 303 304 303 302 302 303 303 303 303 302 301 300 299 299 298 299 300 300 299 298 296 295 295 287 286 287
303 306 308 307 307 307 305 304 303 303 303 302 301 301 299 298 291 290 290 293 292 297 294 296 298 299 300 301 301 300 300 301 302 302 301 300 299 298 296 295 295 295 297 298 296 295 294 294 285 285 285 286
302 301 301 299 299 299 301 302 302 297 294 299 293 301 294 290 291 288 288 290 296 292 293 293 296 297 298 298 299 298 298 298 299 300 299 298 297 296 294 293 285 287 293 295 294 293 292 285 283 284 285 285
298 295 294 295 296 298 300 299 296 294 295 290 290 290 291 291 289 288 288 289 292 293 296 294 295 295 295 296 296 295 295 295 296 296 297 296 294 294 292 285 283 282 282 283 292 291 285 282 282 283 283 284
294 294 293 293 294 294 294 293 293 291 291 290 290 290 290 289 290 289 287 296 296 296 292 292 295 294 293 292 293 292 290 292 293 292 293 293 291 291 288 282 282 282 281 282 282 282 282 281 281 282 283 281
294 293 293 293 293 293 292 291 291 291 290 290 289 289 290 288 290 288 288 288 287 286 286 284 285 285 285 284 284 290 281 282 284 284 282 282 285 281 283 282 281 281 282 282 282 281 281 281 281 281 282 281
295 294 292 292 292 292 291 291 290 290 290 290 289 288 289 291 288 288 288 286 286 285 285 284 283 283 283 281 282 285 281 281 281 280 280 281 281 280 280 280 280 280 282 280 280 280 280 280 279 279 279 279
295 293 292 292 292 291 290 290 290 289 288 289 288 288 290 289 286 287 286 286 285 284 284 283 282 282 282 280 281 283 280 279 280 280 280 279 279 279 280 280 280 280 280 279 280 280 279 279 278 278 278 278
294 292 292 292 295 292 293 291 289 288 288 289 287 288 289 290 286 285 284 285 284 283 284 283 282 281 281 280 280 281 281 279 279 279 279 279 279 279 279 279 279 279 279 279 279 280 279 279 278 277 277 277
293 292 292 293 291 290 296 289 288 288 289 288 288 288 288 289 285 284 285 283 284 283 283 282 282 280 280 280 280 280 279 279 278 278 278 279 278 278 278 278 278 280 279 279 279 278 279 278 278 277 278 277
292 292 291 291 290 290 294 288 288 288 287 286 286 286 286 288 284 284 283 283 282 282 282 281 281 281 280 279 279 278 278 280 278 277 277 277 278 278 277 277 278 279 278 278 278 279 278 278 278 277 277 277
292 291 290 291 289 291 289 288 289 288 286 286 286 286 285 285 287 284 283 282 282 282 281 281 280 279 279 278 278 278 278 279 280 277 277 278 278 277 277 277 278 279 278 277 278 278 277 278 278 278 278 277
291 291 291 290 289 289 288 289 287 287 286 287 285 286 284 284 284 286 282 282 282 282 280 279 279 278 278 277 278 278 278 278 279 279 278 279 279 277 277 277 277 279 276 276 276 276 276 277 277 277 277 277
291 291 291 289 288 289 289 288 287 286 286 285 285 285 285 284 284 285 283 282 284 285 279 279 279 279 279 278 278 278 280 279 277 277 276 277 278 277 276 277 277 279 276 275 276 275 276 277 276 277 277 278
290 290 290 289 288 289 288 287 287 286 285 285 285 285 284 283 284 283 282 282 281 280 279 280 279 278 277 277 278 278 277 275 276 275 275 278 275 280 276 275 276 276 275 275 275 275 276 276 276 276 277 277
290 290 290 288 288 288 288 287 286 286 284 284 284 284 283 283 284 282 282 282 281 280 279 279 278 277 276 278 278 276 277 275 275 276 275 277 274 275 275 275 277 277 275 275 275 275 276 275 276 277 277 277
289 289 289 288 289 287 287 287 286 285 284 284 283 284 283 283 283 282 282 282 281 279 279 278 278 277 277 278 278 276 277 276 276 275 275 277 274 274 274 277 274 275 274 275 275 275 275 275 277 276 276 277
288 288 288 288 288 287 287 286 285 284 284 283 283 283 282 282 283 281 282 282 281 279 279 278 278 277 277 278 276 276 275 276 277 276 277 275 278 273 274 274 274 274 275 275 275 275 275 275 276 275 276 276
288 288 288 287 286 288 287 286 285 284 283 283 283 282 282 282 283 282 281 281 281 279 279 278 277 277 277 277 276 276 276 275 276 275 275 274 275 274 274 273 273 274 274 276 276 275 274 274 274 275 275 276
287 287 287 286 286 287 286 285 284 284 283 282 282 282 282 282 282 282 280 281 280 279 279 277 277 277 277 277 276 276 275 275 276 276 275 274 274 276 274 273 274 274 274 275 275 274 274 274 274 275 275 278
285 285 285 285 283 284 286 285 284 283 283 282 281 282 282 282 281 281 281 280 280 279 279 277 277 276 277 276 276 275 275 275 275 275 274 274 274 273 275 277 275 274 274 274 273 274 275 274 274 274 276 276
285 284 283 284 284 284 284 285 284 283 282 282 282 282 282 282 281 281 281 281 279 278 280 277 276 276 276 276 276 275 275 275 275 275 275 275 277 274 273 273 274 274 273 272 271 272 272 272 273 277 277 276
286 286 285 285 284 284 284 284 284 283 281 282 282 282 282 282 281 280 280 281 279 279 278 277 276 276 276 276 276 276 276 275 278 276 275 274 272 275 273 272 273 274 272 270 269 269 269 271 272 274 274 275
286 286 286 285 284 284 282 284 285 284 283 283 282 281 281 282 281 280 280 280 280 279 278 277 277 276 276 276 276 276 275 275 275 275 274 273 272 272 273 273 274 273 273 269 271 270 270 268 269 273 272 272
287 287 286 285 283 283 283 283 284 283 282 282 281 281 281 281 281 280 280 280 280 279 278 277 277 277 276 276 276 276 275 274 274 274 273 273 273 272 271 272 272 274 273 270 271 266 268 267 268 265 269 269
286 285 283 283 281 281 281 281 281 280 280 281 281 281 280 281 281 280 280 280 279 280 278 278 277 277 276 276 276 276 275 274 274 274 274 273 273 272 271 271 270 274 273 272 273 270 269 265 265 266 268 268
286 285 284 282 281 280 280 280 279 279 280 280 280 281 281 280 281 280 279 279 279 279 279 277 277 277 276 276 276 276 275 275 274 273 273 273 273 273 271 272 271 271 274 273 274 272 271 271 268 267 268 267
286 284 284 283 283 283 282 281 281 282 282 281 281 281 280 280 280 280 279 279 279 279 279 278 277 277 276 276 275 276 275 274 274 274 274 274 273 272 273 271 270 271 271 272 272 273 272 273 272 270 268 266

ECMWFFLT2_sfc_thetae_114.txt.gz
Theta_e
317 317 317 317 317 316 315 315 314 314 313 312 311 311 310 309 308 308 308 309 308 309 308 308 308 308 308 308 308 308 308 308 308 307 307 307 306 307 307 307 307 306 305 304 303 302 301 301 300 299 295 288
317 316 316 316 315 315 315 314 314 312 312 311 310 309 308 307 306 306 307 307 308 307 307 307 307 307 307 307 307 307 307 307 307 306 306 305 305 305 305 306 306 305 304 303 302 301 300 299 298 297 294 286
314 315 315 314 314 313 312 312 311 311 310 309 307 307 306 305 304 304 304 304 304 304 305 305 305 306 306 305 306 307 306 306 306 305 305 304 303 303 303 304 304 303 302 301 300 299 298 297 296 295 289 285
309 313 313 312 312 311 310 310 309 308 307 306 305 305 304 303 301 301 299 302 299 301 302 302 301 304 305 305 304 305 305 305 305 304 303 302 301 300 299 300 301 300 300 299 298 297 296 294 292 284 283 283
307 309 311 310 310 309 309 308 307 306 306 304 303 302 301 299 292 291 292 293 293 298 295 299 300 301 303 303 302 302 302 303 303 303 302 300 299 297 295 294 295 297 297 297 296 295 293 292 283 283 282 282
306 307 307 304 304 303 305 306 306 302 298 301 296 300 294 290 292 289 289 291 296 291 294 294 298 298 300 300 300 301 300 300 301 301 300 299 298 296 294 293 283 285 293 294 293 292 291 282 281 282 282 282
302 301 300 299 299 301 303 301 298 295 296 292 292 289 288 290 289 288 289 290 292 292 298 293 296 296 297 297 297 297 297 296 298 298 297 297 295 293 292 283 281 281 280 282 290 289 282 280 280 281 281 281
299 298 298 297 297 295 294 293 293 292 291 290 289 289 288 287 288 288 288 296 296 298 289 292 295 294 294 293 292 291 289 293 292 293 294 293 292 290 286 280 280 281 280 280 280 280 279 279 279 280 280 279
297 296 296 295 294 293 292 291 290 290 289 289 288 288 288 287 288 287 289 288 288 286 285 282 282 283 283 283 284 288 279 280 282 282 279 280 283 279 281 280 280 280 280 281 280 280 279 279 279 279 279 278
296 295 293 293 292 292 291 291 290 289 288 288 288 288 288 290 287 287 286 285 285 283 283 282 281 281 280 280 281 283 279 279 278 278 277 279 279 278 278 278 279 280 281 279 278 278 278 279 278 278 277 277
295 293 293 292 292 291 290 290 289 288 288 288 288 288 290 288 286 285 284 284 283 282 283 282 280 279 280 279 279 281 278 278 278 278 278 278 277 277 278 278 278 278 277 277 278 278 277 277 277 278 277 277
293 291 291 291 294 292 292 290 289 288 288 288 287 288 289 289 286 285 284 284 282 282 282 281 280 280 279 278 278 280 279 278 277 277 277 277 277 277 277 277 278 277 277 277 277 277 277 277 277 277 276 277
292 291 291 291 291 289 294 289 289 288 288 287 287 288 289 288 285 284 284 283 282 282 282 281 280 278 278 278 278 279 278 277 277 277 276 277 276 276 276 276 278 278 277 276 276 276 277 276 276 277 277 276
292 291 291 291 291 289 294 288 288 288 287 286 287 286 287 287 286 284 283 283 281 282 281 279 279 279 278 277 278 277 277 278 276 276 276 276 276 276 276 276 278 277 276 276 276 277 276 276 276 276 276 276
292 292 291 291 291 290 290 288 288 288 287 286 286 286 286 286 286 284 283 283 282 281 280 279 279 278 278 277 277 278 276 278 277 276 276 276 276 276 275 276 277 276 275 275 275 277 276 275 275 275 275 276
292 291 291 291 290 290 289 288 287 287 286 287 285 285 284 284 285 285 282 283 282 281 280 278 278 277 277 277 276 278 276 277 277 276 277 277 276 276 275 275 276 277 275 275 274 275 275 275 275 275 275 275
292 291 291 290 289 290 289 288 287 286 286 286 285 285 284 283 284 285 283 282 283 284 279 278 278 277 278 277 277 277 277 278 276 276 276 276 277 276 275 276 276 278 274 275 274 274 275 275 275 275 275 275
291 291 290 290 289 290 288 287 287 287 285 286 285 285 283 283 284 284 282 282 281 281 279 278 278 277 276 276 277 277 277 275 275 275 275 276 276 281 276 275 276 274 274 274 274 274 276 275 275 275 275 275
291 291 290 289 288 288 288 287 286 286 285 285 285 284 283 283 284 283 282 282 281 279 279 278 277 277 276 277 277 276 276 275 276 276 276 277 275 275 275 274 278 274 274 275 275 274 276 274 274 275 275 275
291 291 290 289 290 288 287 287 286 285 285 284 284 284 283 282 284 282 282 282 281 279 279 278 278 277 276 277 277 276 276 276 275 275 276 277 275 274 274 275 274 275 274 274 275 275 275 274 276 275 275 275
290 290 289 289 288 288 287 286 286 285 284 284 283 283 283 282 284 282 281 281 281 280 279 278 277 276 277 278 276 275 275 275 276 275 276 275 276 274 273 275 273 274 275 274 275 274 274 273 276 274 274 274
290 290 289 288 288 289 287 287 286 285 284 283 283 283 283 282 283 282 281 281 281 279 279 278 278 276 276 277 276 275 275 275 276 275 275 275 275 274 274 273 274 274 274 276 275 274 274 273 273 273 274 274
289 288 288 287 287 287 287 286 285 285 283 283 283 283 283 282 283 283 281 281 281 279 279 278 277 276 276 277 275 275 275 275 275 275 274 274 274 276 274 273 274 274 274 275 275 274 273 273 273 274 274 276
286 286 287 285 284 284 286 286 285 283 284 283 283 283 282 282 282 282 281 281 280 279 279 277 277 277 276 276 275 275 274 274 274 275 274 273 274 274 275 276 274 274 275 274 273 274 274 273 273 272 274 274
286 285 285 284 285 286 286 285 285 284 283 282 283 283 282 282 282 281 281 281 280 279 280 278 277 277 276 276 276 275 275 275 275 275 274 274 276 274 273 273 274 273 273 272 271 272 271 272 273 276 277 275
287 287 287 286 286 286 286 285 285 284 283 283 283 283 282 282 282 281 281 281 280 280 279 278 277 276 276 276 276 276 276 275 278 276 274 274 273 275 273 272 274 274 273 271 270 270 269 271 271 275 273 274
287 287 287 287 286 286 284 285 286 285 285 283 282 282 282 282 282 281 280 281 281 280 279 278 277 277 277 276 276 276 275 275 275 275 274 274 273 273 273 273 274 273 273 269 271 270 272 270 270 274 271 272
288 288 287 286 283 284 285 283 285 284 282 282 281 281 282 282 282 281 281 280 280 280 279 278 277 277 276 276 276 276 275 274 274 275 274 274 274 273 272 272 272 274 274 270 272 268 269 268 267 268 270 270
287 286 283 282 281 281 281 281 281 281 281 281 282 282 280 281 281 281 280 280 280 280 279 278 278 277 277 276 276 276 275 275 275 275 275 274 273 273 272 272 271 273 274 272 273 272 269 266 266 268 268 270
287 286 284 281 281 280 280 280 280 280 282 281 280 281 282 280 281 281 280 280 280 280 280 278 278 277 277 276 276 276 275 275 275 275 275 274 274 273 273 273 271 271 275 273 274 273 273 273 270 268 269 269
286 285 284 283 283 283 282 282 282 283 283 283 282 282 280 280 280 280 280 280 279 279 279 278 278 277 277 276 276 277 275 275 275 275 275 275 274 273 274 272 271 271 272 273 273 273 273 272 273 271 270 269

ECMWFFLT2_sfc_thetae_120.txt.gz
Theta_e
323 322 321 320 320 320 319 320 320 318 318 318 316 315 315 314 313 312 312 312 311 311 311 310 310 309 309 310 309 310 310 310 310 311 312 311 311 311 311 310 309 308 307 305 304 302 302 302 301 298 293 287
321 320 320 320 320 320 319 319 318 317 317 316 315 314 313 313 312 311 311 311 311 311 310 309 309 309 309 309 309 309 310 310 311 311 311 310 309 309 309 308 308 306 305 304 302 301 300 300 299 296 293 285
317 319 319 319 319 319 318 317 317 317 316 315 314 313 312 311 312 312 310 310 310 310 308 307 307 308 308 308 308 308 309 309 309 309 310 309 308 307 307 307 306 305 304 302 301 299 298 297 295 294 287 283
314 317 318 318 317 317 317 317 316 315 315 314 312 311 311 310 307 308 307 310 306 308 307 306 305 306 307 308 307 308 308 307 307 307 307 307 307 306 305 305 303 302 302 301 299 297 296 294 290 281 280 281
312 314 315 316 316 316 316 315 315 315 313 311 311 309 307 303 296 295 296 298 300 304 299 307 306 306 306 307 307 307 306 306 306 305 305 303 302 301 300 299 300 300 299 298 297 295 293 290 280 279 279 280
311 312 313 310 311 310 312 313 313 308 304 305 302 305 298 294 295 293 294 296 299 296 297 300 305 305 306 306 306 306 306 305 304 304 303 301 300 298 296 293 280 283 294 295 294 292 289 279 278 278 279 279
309 308 307 307 307 308 310 307 303 302 301 299 297 294 293 293 292 292 292 293 295 296 302 300 303 304 305 306 306 305 304 303 303 302 301 300 297 295 292 281 278 278 277 280 289 286 279 277 277 277 278 279
307 306 306 305 305 304 302 300 299 298 297 295 293 292 291 290 291 290 291 300 300 298 292 295 300 300 298 298 299 297 292 298 299 299 298 295 292 288 283 278 279 278 278 277 277 277 277 276 276 277 277 277
304 304 304 303 303 302 300 297 296 295 293 292 291 290 289 289 290 289 291 288 287 285 284 282 281 282 282 282 283 288 278 279 282 280 278 279 282 278 280 279 278 277 277 278 277 276 276 277 276 276 277 276
302 302 301 301 300 299 297 296 294 292 290 289 289 288 288 289 287 288 288 285 284 283 282 280 279 279 279 279 279 282 277 277 277 277 277 278 278 277 277 277 278 279 279 277 276 276 276 276 276 276 275 276
301 300 299 299 297 297 295 294 292 290 288 287 287 287 289 287 286 287 286 284 282 281 280 280 278 278 278 278 278 279 277 277 277 276 276 276 277 276 276 276 276 276 276 276 276 276 275 275 276 276 275 275
301 300 298 298 299 297 296 293 292 289 287 287 286 287 288 288 287 287 286 283 281 280 279 279 278 278 277 277 277 278 277 277 276 276 275 276 276 277 276 277 276 276 276 275 275 275 275 275 275 275 275 275
300 298 298 297 296 294 297 292 291 289 287 286 286 287 288 288 286 286 286 283 281 279 279 278 278 277 276 277 277 278 276 277 276 276 276 276 276 276 276 276 276 276 275 275 275 275 275 275 275 275 275 275
299 298 297 296 295 293 296 290 290 288 286 286 286 286 287 287 287 286 285 283 281 281 279 278 278 278 277 276 277 276 277 276 276 275 275 276 276 276 276 277 278 275 275 275 275 275 275 274 274 274 275 275
299 297 296 295 294 292 293 290 289 288 287 285 286 286 286 286 287 285 284 283 281 280 279 278 277 277 277 276 276 277 277 277 276 275 276 276 275 276 276 276 277 275 275 274 275 276 274 274 274 274 274 275
298 296 295 294 292 291 291 289 288 288 287 287 286 286 286 286 285 286 283 282 281 280 279 278 277 277 276 276 276 277 276 277 277 276 275 275 275 275 276 275 275 275 274 274 274 274 274 274 275 274 274 274
296 295 294 293 292 291 291 289 288 287 287 286 286 286 286 285 285 286 283 282 282 283 279 278 277 276 278 276 276 277 277 277 276 277 276 276 276 275 275 275 275 276 274 274 274 274 274 273 274 274 274 274
295 294 293 293 292 291 291 289 288 288 287 287 286 286 286 285 285 285 283 282 281 281 279 278 277 277 277 276 276 277 277 276 276 275 275 276 275 280 277 275 276 274 274 274 274 274 275 274 274 274 274 274
295 294 293 292 292 292 291 290 289 288 287 286 286 286 286 285 285 285 283 282 282 280 279 278 277 277 277 276 277 276 276 276 275 275 275 276 276 276 274 274 277 274 274 274 274 274 275 273 275 275 274 274
294 294 293 292 293 292 291 291 289 288 287 286 286 286 285 285 285 284 283 282 282 280 279 279 278 277 277 277 276 276 276 276 275 275 276 277 276 275 274 276 275 275 273 274 275 276 274 273 277 274 274 274
294 293 292 292 292 291 291 290 289 289 287 286 285 285 285 285 285 284 283 282 282 281 280 279 278 277 277 277 276 276 276 275 276 275 276 276 276 275 273 275 273 274 274 275 275 274 274 274 276 273 273 274
294 293 293 292 292 292 290 290 290 289 287 286 286 285 285 284 285 285 283 282 282 281 280 279 278 277 276 277 276 276 275 275 275 275 275 275 275 274 274 274 274 274 274 275 275 275 274 273 273 273 273 274
295 294 293 291 291 290 290 289 289 288 286 286 285 284 284 283 284 286 283 282 282 281 281 279 278 277 276 277 276 275 275 275 275 275 275 275 274 275 273 274 273 273 274 274 275 274 274 274 273 273 273 277
294 293 291 289 288 288 289 288 288 286 286 286 285 285 285 284 283 284 283 282 282 281 281 279 278 277 276 276 276 275 275 274 275 275 274 274 274 274 275 275 273 274 275 274 273 275 275 273 273 272 274 274
294 291 290 289 289 288 288 287 287 286 285 285 285 285 284 284 283 283 283 282 281 281 282 279 278 277 276 276 276 276 276 276 275 275 275 275 276 274 273 273 273 273 273 272 272 273 272 273 273 276 278 274
294 293 292 291 289 289 288 287 287 286 285 285 285 285 284 284 283 283 282 283 281 281 280 279 278 277 276 276 276 276 276 275 278 276 274 274 274 275 273 272 273 273 273 271 271 271 271 272 273 274 275 273
293 293 293 292 291 290 289 289 289 288 287 286 285 284 284 284 283 282 282 282 282 281 280 279 278 277 277 276 277 276 275 275 275 275 274 274 274 273 273 273 274 273 273 270 271 271 272 270 271 274 275 274
293 293 292 292 291 290 290 286 287 286 284 283 283 282 283 283 283 283 282 282 282 281 280 279 279 278 277 276 277 277 275 274 274 274 274 274 274 274 272 272 272 274 274 271 273 270 272 270 270 270 273 273
292 290 288 288 286 286 285 283 284 283 282 282 283 283 281 282 283 283 282 282 281 281 280 280 279 278 277 277 276 277 276 275 275 275 275 274 274 274 274 272 271 274 274 272 274 274 270 267 268 271 271 271
291 290 289 286 286 284 283 283 282 282 284 282 282 283 283 283 283 283 282 282 281 281 281 280 279 278 277 277 277 277 276 276 275 274 274 274 274 274 274 274 272 271 275 274 274 273 273 273 270 269 269 271
290 289 289 287 287 287 286 286 285 286 286 286 284 284 283 283 282 282 282 282 281 281 281 280 279 278 278 277 277 278 276 275 275 275 275 275 274 274 275 273 272 272 271 273 273 274 273 272 271 271 270 270

ECMWFFLT2_sfc_thetae_123.txt.gz
Theta_e
325 325 325 325 324 323 323 322 321 321 320 319 318 317 317 316 315 314 314 314 314 313 313 312 312 312 311 311 311 311 311 311 311 311 311 312 313 313 312 311 310 309 308 307 306 306 305 304 303 301 299 299
323 323 324 324 324 323 323 322 321 320 320 318 317 317 316 315 315 314 313 313 313 312 312 311 311 310 311 310 310 310 310 310 310 310 311 311 312 311 310 310 309 307 306 306 305 304 303 302 301 300 298 297
320 320 321 322 322 322 322 322 321 319 319 317 317 317 316 315 314 314 314 312 312 312 311 310 309 310 310 310 309 310 309 309 309 310 310 311 310 310 309 308 307 306 305 304 303 302 301 299 298 297 295 296
318 319 319 320 319 320 320 320 319 319 318 317 316 315 314 313 312 313 312 312 310 310 309 309 308 309 309 309 309 309 308 308 309 309 310 310 309 308 307 306 305 303 303 302 301 300 298 296 294 291 293 295
316 317 317 318 318 318 318 318 317 317 316 313 313 311 310 307 305 305 306 306 309 309 307 309 309 308 308 309 309 308 307 307 308 308 307 306 306 304 303 302 301 301 300 300 298 297 294 292 289 290 291 293
315 316 316 316 316 316 316 316 315 312 310 308 309 308 304 303 302 302 303 304 304 306 307 307 307 308 307 308 308 307 306 307 307 306 304 304 303 301 298 295 289 292 297 296 295 293 291 287 288 289 290 292
313 313 313 313 313 313 313 310 308 308 307 306 304 302 301 300 299 300 300 301 302 305 306 306 306 308 307 307 307 306 305 305 305 304 302 301 299 297 293 287 287 286 286 288 290 288 286 287 287 288 289 291
311 311 311 311 311 309 308 307 306 305 303 301 300 300 299 299 299 299 301 303 302 302 303 304 303 302 302 303 303 300 299 302 302 300 298 295 293 289 287 286 286 286 285 285 285 286 285 286 286 287 288 290
310 310 310 309 308 307 306 304 303 302 300 299 298 298 298 298 298 299 299 298 297 296 295 294 293 293 293 293 294 292 289 289 289 287 286 287 286 286 286 286 285 285 285 285 285 285 285 285 286 286 287 288
309 309 308 308 307 305 304 303 301 299 298 297 296 296 296 297 296 296 295 295 294 292 292 292 291 290 289 290 289 289 287 286 286 286 285 286 285 284 285 285 285 286 285 284 284 284 284 285 285 286 287 287
308 308 309 308 306 304 302 302 300 298 296 296 295 295 296 295 295 294 293 292 292 290 290 289 288 287 287 288 287 287 286 285 285 285 285 285 284 284 284 284 284 284 283 284 284 284 284 284 284 285 286 287
307 306 305 304 304 304 302 300 299 297 295 294 293 294 295 295 295 293 292 291 290 288 288 287 286 285 285 285 285 285 286 285 284 284 284 284 284 283 283 283 283 283 283 283 284 284 284 284 284 285 285 286
306 305 304 303 303 301 301 300 298 296 294 293 293 293 294 294 294 293 292 290 289 287 287 285 285 285 285 285 284 285 284 285 284 284 284 284 284 284 284 283 283 283 283 283 283 284 284 284 284 285 285 286
305 304 303 302 302 301 301 299 297 294 292 292 292 292 293 293 294 293 291 290 288 287 286 285 284 285 284 284 284 284 284 284 284 284 283 284 284 283 283 284 284 283 283 283 283 283 283 283 283 284 285 285
304 303 302 302 301 300 300 297 295 293 292 291 292 292 292 292 293 292 291 289 287 287 285 284 284 284 283 283 283 284 284 284 284 284 284 284 284 284 284 284 283 283 282 283 282 283 283 283 283 284 284 285
304 303 303 301 299 298 298 295 294 292 291 291 290 292 291 291 292 292 290 289 287 287 285 284 284 283 283 283 283 283 283 283 283 283 283 283 283 284 284 282 282 283 282 282 282 282 282 283 283 283 284 284
304 303 302 300 299 298 296 295 294 292 290 290 290 291 291 291 291 291 289 288 287 287 285 284 284 283 284 283 283 283 283 284 283 283 283 283 283 283 283 282 282 282 282 282 281 282 282 282 283 283 284 284
303 302 301 300 298 297 295 294 293 292 291 290 290 290 290 290 290 290 289 288 287 287 285 284 284 283 283 283 283 283 283 282 283 283 283 282 282 283 282 282 282 281 281 281 281 282 282 282 283 283 283 283
303 301 300 299 297 296 295 293 293 293 291 290 289 290 290 290 290 290 288 288 287 286 285 284 284 283 283 282 282 282 282 282 282 282 282 282 282 283 282 282 282 282 282 281 280 281 281 281 282 282 282 283
302 302 299 298 298 296 295 293 292 292 291 290 290 290 289 289 289 289 288 287 287 286 285 284 284 283 283 282 282 282 282 282 281 282 282 282 283 281 281 281 281 281 281 281 280 281 281 281 282 282 282 282
301 301 299 297 296 296 295 294 293 292 291 291 289 289 289 289 289 289 288 287 287 286 285 284 284 283 282 282 282 282 281 282 282 281 282 282 282 283 281 281 281 280 281 280 280 280 280 281 281 281 282 281
301 300 299 298 296 296 294 293 293 293 292 290 290 289 289 289 289 289 287 287 286 286 285 285 284 283 282 282 281 281 281 281 281 281 282 281 281 281 281 281 280 280 280 280 279 280 280 280 280 281 281 281
301 299 299 297 295 294 293 293 293 292 291 290 290 289 289 289 289 289 287 287 287 286 285 284 283 282 281 282 281 281 281 281 280 281 281 282 280 281 281 281 281 281 280 279 279 279 279 280 280 281 281 282
299 298 296 294 292 292 292 292 292 291 290 290 289 289 289 288 288 289 287 287 286 286 286 284 283 282 281 281 281 281 280 280 280 280 280 280 281 279 280 280 280 280 280 280 279 280 280 280 280 280 281 280
299 296 295 294 292 292 292 291 291 290 290 290 289 289 289 288 288 289 288 287 286 286 286 284 283 282 281 281 281 281 281 281 281 281 281 280 281 280 279 278 279 280 281 279 278 279 279 279 280 280 281 279
299 298 297 295 293 293 292 291 290 289 289 290 290 289 288 288 287 288 288 287 286 286 286 284 283 282 281 281 281 281 282 281 281 281 280 280 279 280 279 278 279 279 279 277 278 278 278 279 280 280 281 280
301 300 299 299 298 296 295 295 295 294 292 291 290 289 289 288 287 287 287 287 286 286 285 285 283 282 282 281 281 281 280 280 280 280 279 279 279 278 278 278 279 279 280 278 278 279 278 278 278 279 280 281
302 302 301 299 298 297 296 294 294 293 291 290 289 287 287 287 287 287 287 287 286 286 285 285 284 283 282 281 282 281 280 279 279 279 279 279 280 279 277 277 277 279 279 279 278 276 278 278 277 278 280 280
300 299 297 296 292 292 290 288 289 288 287 287 288 287 285 286 287 287 287 287 287 286 286 285 284 283 282 281 281 282 281 280 280 280 280 279 279 279 280 278 277 278 279 279 282 281 277 275 275 277 279 278
299 298 298 294 291 289 289 289 287 287 289 286 286 286 286 286 287 287 286 287 286 286 286 285 284 283 282 282 281 281 281 281 280 279 279 279 279 279 281 280 277 276 278 279 279 280 281 281 280 280 279 279
297 297 297 295 294 294 293 292 292 293 293 291 290 290 287 286 286 287 286 286 286 286 286 285 284 283 283 282 281 282 281 280 280 279 279 279 279 279 280 279 278 277 277 277 277 278 278 277 276 278 279 279

ECMWFFLT2_sfc_thetae_126.txt.gz
Theta_e
328 328 328 328 327 327 326 325 324 322 322 321 320 320 319 319 318 317 316 317 316 316 315 314 314 313 314 314 313 313 314 313 313 313 313 312 312 312 312 311 311 311 311 310 310 309 308 308 307 308 311 314
325 325 327 327 326 326 325 325 323 322 321 320 319 319 319 319 318 317 316 315 316 316 314 313 313 312 313 313 313 312 313 312 312 311 311 311 312 311 311 310 310 309 309 309 308 307 306 306 306 307 310 313
325 323 324 324 325 324 324 324 324 323 321 320 319 320 318 317 316 316 317 316 314 314 313 312 312 312 312 312 312 312 311 311 310 310 310 310 311 311 310 309 308 308 307 307 306 305 304 303 304 306 311 312
326 322 321 321 321 322 322 322 321 321 320 319 318 316 315 314 314 315 315 316 313 313 312 313 311 311 312 312 311 311 310 310 310 310 309 310 310 309 308 307 306 305 305 305 304 303 302 301 303 308 309 311
323 323 319 320 319 319 319 319 319 318 318 317 315 313 313 313 313 313 312 311 311 311 310 311 312 310 311 311 310 309 308 309 309 309 309 309 309 307 305 304 303 303 303 302 302 301 300 300 304 306 308 310
321 321 321 321 321 320 319 318 317 318 318 313 315 312 312 312 311 311 312 311 309 308 308 309 310 312 310 311 309 309 307 307 307 307 307 306 305 304 302 301 301 299 299 299 299 298 298 301 303 305 307 309
320 320 320 321 320 320 319 317 316 316 314 314 312 312 311 309 309 309 309 309 309 309 309 309 310 310 309 309 308 307 307 306 305 306 305 304 302 300 297 297 296 297 296 296 295 296 299 300 301 303 305 307
318 318 318 318 319 318 318 317 316 315 314 312 311 310 308 308 308 308 308 307 305 306 309 309 308 308 308 309 308 306 306 305 303 302 301 299 296 295 294 295 293 293 294 294 295 296 297 298 300 302 303 305
315 316 316 316 316 316 315 314 314 313 311 310 309 308 306 306 306 306 305 307 307 308 308 308 307 307 308 308 307 305 305 303 300 298 296 294 293 294 294 294 294 294 293 293 294 294 295 297 299 300 302 304
315 316 316 314 313 313 312 311 309 308 307 306 307 307 306 305 306 305 305 305 305 306 307 307 306 306 306 306 304 304 302 299 297 294 293 293 293 292 294 293 293 293 292 292 292 293 294 295 297 299 300 302
314 315 316 315 313 310 308 308 307 306 305 305 306 307 307 305 304 304 303 304 304 305 306 305 305 304 305 305 303 302 299 297 295 293 292 292 292 292 292 292 292 292 292 292 292 292 293 294 295 297 299 301
313 313 313 312 311 311 308 308 307 306 306 306 305 307 306 305 304 303 302 303 303 303 303 303 304 303 303 302 301 300 299 296 294 292 292 292 291 290 291 291 291 290 290 291 292 292 292 293 294 296 297 300
313 312 312 311 311 311 309 310 309 307 306 304 305 306 306 306 304 303 303 302 301 300 301 300 300 300 300 300 298 297 296 295 293 292 291 291 290 291 290 290 290 290 290 290 291 290 291 292 293 295 297 299
311 312 312 311 311 311 309 310 310 307 304 304 303 304 306 306 305 304 302 301 300 298 298 298 298 298 297 297 296 295 294 293 292 291 291 291 291 289 290 289 290 289 290 289 290 290 290 290 291 294 295 297
311 311 310 310 310 309 309 309 307 305 304 303 303 304 305 305 305 304 303 301 299 299 298 296 296 296 295 294 294 294 293 292 292 291 291 291 290 290 290 290 289 289 289 289 289 289 290 290 290 291 294 296
311 310 310 310 309 308 308 307 304 303 302 301 302 303 303 304 303 303 302 301 299 299 297 296 295 294 293 292 292 292 292 291 292 291 292 292 291 291 291 289 289 289 289 288 288 289 289 289 289 290 292 294
309 309 309 309 309 308 306 305 303 301 300 300 300 301 302 302 302 301 301 300 298 298 297 295 294 293 292 292 292 291 292 292 291 291 290 290 290 290 290 289 289 289 289 288 288 288 288 288 289 289 290 292
309 308 308 307 307 305 305 304 303 301 299 298 299 300 300 299 299 298 299 299 298 297 296 295 294 293 292 292 292 291 291 290 290 289 289 288 288 288 288 288 288 287 288 287 287 287 288 288 288 288 289 290
309 308 307 305 304 303 303 302 302 300 297 296 295 296 296 297 297 297 297 297 297 296 295 294 293 293 292 292 291 290 290 290 289 289 289 288 288 288 288 288 288 288 288 287 286 287 287 287 287 288 289 289
309 308 307 305 303 303 302 302 300 299 298 296 294 294 295 296 296 296 296 296 296 295 294 294 293 293 293 292 290 290 289 290 289 289 289 289 289 287 287 288 287 288 288 287 287 287 287 287 287 287 288 288
308 307 305 304 303 302 302 302 301 300 299 296 294 294 294 295 295 296 296 295 295 294 294 294 294 293 292 291 289 289 288 288 289 289 288 288 288 289 287 287 287 287 287 287 286 286 286 287 287 287 288 287
307 307 305 303 302 301 301 300 300 300 299 296 294 294 294 294 294 295 296 295 295 294 295 295 294 293 291 289 289 288 288 287 288 288 288 287 288 288 288 287 287 286 286 287 286 286 286 286 286 286 287 287
307 306 304 303 301 300 300 300 299 300 299 296 294 293 294 293 293 294 295 294 294 294 294 294 294 292 290 289 288 288 287 287 287 287 287 288 287 288 288 288 288 287 287 286 286 285 285 285 284 286 286 287
306 304 303 301 301 299 298 297 297 297 297 295 294 293 293 294 293 294 294 293 293 293 293 293 292 291 290 289 289 288 287 287 286 287 287 288 287 286 287 288 288 288 286 285 285 284 284 284 284 285 286 285
305 303 303 302 300 299 299 297 297 296 294 294 294 294 294 294 294 295 293 292 292 292 292 292 292 291 289 289 289 288 288 289 288 288 288 288 288 286 285 285 286 286 286 284 283 284 285 284 285 285 284 284
306 305 303 301 301 299 297 296 295 294 294 294 293 294 294 294 293 293 292 292 293 291 292 291 290 289 288 288 289 289 289 289 288 288 287 287 286 287 285 285 285 285 285 282 282 282 282 283 284 284 284 284
305 305 303 302 302 300 299 298 297 296 295 295 294 294 294 293 293 293 292 291 291 291 291 290 289 289 289 288 288 288 289 288 288 287 287 287 286 284 285 286 286 285 285 283 284 284 283 282 281 283 283 284
306 305 304 303 303 301 301 298 297 296 296 295 294 292 293 294 292 291 293 292 291 290 291 290 289 290 290 288 289 288 288 287 287 287 287 286 286 286 283 284 283 285 285 285 284 280 281 283 284 282 282 282
306 306 304 303 301 298 297 295 296 294 294 294 293 292 291 292 292 292 291 291 291 290 291 290 290 290 289 288 288 288 288 287 287 288 287 287 286 286 285 284 284 284 285 285 287 285 283 281 280 281 285 285
305 304 304 302 298 294 293 293 292 292 292 291 291 292 293 292 292 292 291 290 291 291 291 290 289 290 289 288 288 288 288 287 287 287 287 287 287 286 287 287 285 283 284 285 286 287 287 287 283 284 285 284
304 303 303 302 300 299 297 296 296 296 296 294 293 295 294 292 293 292 290 290 290 290 290 289 289 290 289 289 288 288 287 286 286 286 287 287 287 287 287 288 286 284 283 283 284 285 285 286 285 285 285 283

ECMWFFLT2_sfc_thetae_129.txt.gz
Theta_e
328 329 329 328 328 327 327 326 326 325 324 323 323 322 322 321 320 319 319 319 318 317 316 316 317 316 316 316 316 316 315 315 315 314 313 312 312 313 313 313 314 314 314 313 313 312 312 312 313 314 317 316
325 326 327 328 327 326 327 326 325 325 323 322 322 322 322 321 320 319 318 318 317 317 316 315 315 316 316 315 315 315 314 314 314 313 312 311 311 311 312 312 312 312 312 312 311 310 310 310 312 313 316 315
327 324 325 326 325 325 325 325 324 323 322 322 321 321 319 318 317 318 318 318 316 315 314 314 315 314 315 314 315 314 313 313 312 311 311 310 311 311 310 310 310 310 310 310 309 308 308 308 310 313 315 314
328 324 323 323 323 323 323 322 322 322 321 320 318 317 316 315 315 317 317 318 315 315 314 315 313 313 314 313 313 313 312 311 311 311 310 310 309 309 309 308 308 307 308 307 307 306 306 307 310 311 313 314
327 326 322 322 321 321 321 320 320 319 319 318 316 314 314 313 314 315 314 312 313 314 311 313 313 313 313 313 313 312 311 310 310 310 309 309 308 307 306 305 304 304 305 304 304 303 304 307 308 311 312 313
325 325 323 325 324 322 321 319 318 318 318 314 315 313 313 313 313 312 312 311 309 309 309 310 311 313 313 312 312 311 310 310 309 309 308 307 307 305 303 302 301 300 300 300 301 301 304 304 306 309 311 312
324 323 323 324 323 322 319 317 316 318 316 315 313 312 313 311 312 311 310 309 309 309 310 310 311 311 314 311 311 310 309 308 308 307 306 306 304 302 299 299 300 299 298 298 298 300 301 302 304 307 309 311
322 322 322 322 321 320 318 317 317 317 317 315 314 313 312 311 312 310 309 308 306 307 308 310 311 311 311 310 310 309 307 306 306 306 305 303 300 297 296 296 295 296 296 296 297 298 298 300 302 304 306 308
320 321 321 320 319 318 318 318 318 317 315 314 314 313 311 311 311 310 309 308 307 307 307 308 308 308 308 307 306 307 305 303 303 301 299 296 296 295 296 295 295 295 295 295 296 296 297 299 300 302 304 307
319 320 319 318 319 318 317 317 316 314 313 313 313 311 311 310 309 308 308 308 307 307 307 306 306 307 307 306 305 305 304 302 301 297 295 294 294 294 295 295 295 294 294 294 294 295 297 297 298 300 301 305
318 317 317 317 317 316 315 315 314 312 312 311 311 311 310 309 308 307 307 307 307 307 307 306 306 306 306 306 305 304 302 300 297 294 293 293 294 293 294 294 294 294 294 294 294 295 296 297 297 299 301 303
317 316 316 316 315 315 314 314 312 311 310 310 309 309 309 308 307 306 305 306 306 307 307 306 306 306 306 306 305 304 301 298 296 293 293 293 293 292 292 292 292 292 293 293 294 294 295 296 296 298 300 303
317 316 316 316 315 315 312 312 311 310 309 308 308 309 308 308 306 306 305 305 305 306 305 305 305 305 304 305 304 303 299 297 295 293 293 292 292 292 291 291 292 292 292 292 293 293 294 294 296 297 299 302
317 317 316 315 314 313 310 311 309 308 307 307 307 307 308 308 307 306 305 305 304 304 304 305 304 304 304 303 302 300 297 296 294 293 292 292 292 291 291 291 291 291 291 291 292 292 292 293 294 296 298 300
316 316 315 315 314 312 310 310 309 308 307 308 308 307 308 308 308 307 306 304 303 303 303 302 302 302 302 301 300 299 297 295 294 293 292 292 291 291 291 291 291 291 290 291 291 292 292 292 293 294 297 298
315 314 314 313 313 311 311 310 310 309 307 306 307 308 308 307 307 306 305 304 302 302 301 301 301 301 300 300 299 298 296 294 294 293 293 293 292 292 292 291 291 291 290 290 290 291 291 291 291 292 295 297
314 315 314 313 312 311 311 310 308 307 307 305 306 307 307 307 307 305 304 303 302 301 300 300 300 299 299 299 298 296 296 294 294 293 293 292 292 292 291 290 290 291 290 290 289 289 290 290 291 291 293 295
315 314 313 312 312 311 311 310 309 308 307 306 306 307 307 308 307 305 304 302 301 301 300 299 299 298 297 297 296 295 295 293 293 292 292 291 290 291 290 289 289 289 289 289 289 289 290 290 290 290 291 293
314 313 312 312 312 311 311 310 309 308 307 305 305 305 305 306 305 304 303 302 301 300 299 298 297 296 296 295 295 294 294 293 292 292 291 291 289 290 289 290 290 289 289 289 288 288 289 289 289 290 290 291
314 313 312 311 309 311 312 311 308 309 307 304 304 304 304 304 303 302 301 301 301 299 298 297 296 296 295 295 294 294 293 292 291 291 292 291 291 289 289 289 289 289 289 289 288 289 288 289 289 289 289 290
314 313 311 311 311 311 310 309 307 308 307 306 302 302 303 302 301 300 299 299 299 298 297 296 296 295 295 294 293 293 292 291 292 291 291 290 290 291 289 289 289 288 289 289 288 289 288 289 288 289 289 289
313 311 311 311 310 308 308 308 308 309 306 303 301 301 301 301 300 299 299 298 298 297 297 296 296 296 295 294 293 292 292 291 291 291 291 289 290 290 289 288 288 288 288 289 288 288 288 288 288 288 289 289
312 310 310 310 308 307 307 307 307 307 303 302 302 301 301 301 300 298 298 298 297 296 296 296 296 295 295 293 292 291 290 290 290 290 290 289 288 290 290 289 289 288 288 289 288 288 287 288 287 288 289 289
309 308 307 306 306 305 304 305 303 303 303 301 301 301 300 299 299 298 297 297 297 297 296 295 295 294 293 292 291 290 289 289 288 289 289 289 289 288 289 290 289 289 288 287 287 287 287 287 287 287 288 287
308 307 306 305 304 303 303 303 303 302 302 301 300 299 299 298 298 298 298 296 296 296 296 295 295 294 292 291 290 290 289 290 289 289 289 289 289 288 287 287 289 289 289 286 285 286 286 286 287 287 286 286
309 308 307 305 304 305 304 302 301 300 300 299 298 299 299 298 297 297 297 297 296 295 296 295 294 293 291 291 290 290 290 290 290 290 289 289 288 289 287 286 288 288 287 284 283 282 282 284 286 286 286 286
308 309 308 308 306 305 305 305 304 304 304 301 299 299 298 298 298 297 297 296 295 294 294 294 293 293 292 291 291 290 290 290 290 289 289 289 288 287 288 287 289 288 287 283 285 285 283 281 281 283 284 285
310 309 309 309 307 306 305 303 304 304 302 301 299 298 297 297 297 297 296 296 296 295 294 294 293 292 291 291 291 291 290 289 289 289 289 289 289 289 285 286 286 287 287 286 285 280 281 282 282 280 281 282
309 307 306 305 303 302 300 297 301 300 298 298 297 297 297 297 296 295 296 295 295 294 293 294 294 292 291 291 290 290 290 290 290 290 289 289 289 288 287 285 285 286 287 287 288 285 282 281 281 281 284 283
306 307 305 303 299 293 293 292 292 293 294 295 295 295 297 297 296 295 295 295 294 294 293 293 294 292 291 291 289 289 289 289 289 289 289 289 289 288 289 287 285 284 286 287 287 288 288 288 282 283 285 284
301 302 304 304 302 300 298 297 297 298 299 298 297 297 296 296 297 296 295 295 295 294 294 293 292 291 290 289 289 289 289 289 289 289 289 290 289 288 289 290 286 285 284 285 286 287 288 288 288 287 284 283

ECMWFFLT2_sfc_thetae_132.txt.gz
Theta_e
329 330 330 331 330 329 328 328 328 327 326 326 325 325 323 322 322 321 320 320 320 319 318 318 318 318 318 318 318 318 317 317 315 314 315 315 314 314 315 315 316 316 316 316 315 315 315 316 317 315 316 311
327 327 329 329 328 328 328 328 327 326 325 325 324 324 322 321 321 321 320 319 318 318 318 317 317 318 318 318 317 317 316 316 315 314 313 312 312 312 313 314 315 315 315 314 314 313 313 314 314 314 315 308
326 325 326 326 326 326 326 326 326 325 325 325 324 323 321 320 319 320 319 318 317 318 317 317 317 317 318 317 317 316 315 315 314 313 312 311 311 312 311 312 312 312 313 312 312 311 311 312 312 315 312 307
324 324 324 324 324 324 325 324 324 323 323 321 320 319 318 317 316 317 316 318 315 316 317 317 315 317 317 317 316 315 314 314 313 313 312 310 310 310 310 309 309 309 310 309 309 308 309 310 313 308 307 307
324 324 322 322 322 322 322 321 321 320 319 317 316 315 315 314 313 313 313 313 312 316 310 312 315 316 315 315 315 314 313 312 312 312 311 310 308 306 305 304 304 305 306 306 305 306 309 310 305 306 308 308
324 323 322 323 322 321 320 319 318 317 315 312 313 313 312 311 310 310 311 310 309 309 309 310 313 314 315 313 314 313 312 312 312 311 309 308 306 304 303 302 299 300 302 302 303 306 307 301 302 304 306 307
323 324 323 322 321 319 318 316 315 315 313 313 312 311 311 310 309 309 308 307 308 308 310 310 312 313 315 313 313 312 311 310 311 310 309 307 303 300 300 298 296 297 296 295 301 304 299 299 299 301 304 305
322 323 322 321 320 319 317 316 316 315 314 312 311 311 310 310 309 308 307 308 307 307 307 309 311 312 313 312 313 311 309 310 309 309 308 305 300 298 300 295 294 295 295 295 294 295 295 296 298 299 301 303
320 322 321 321 320 318 316 316 316 314 313 312 311 310 309 309 308 307 306 306 306 305 306 305 306 306 306 305 304 305 301 302 302 299 296 296 297 295 295 294 293 293 293 293 293 294 294 295 296 298 300 301
318 319 319 319 318 317 316 315 315 313 312 311 311 310 309 308 307 305 305 305 305 305 305 305 304 303 303 303 302 303 300 299 298 296 294 294 294 293 293 293 293 292 292 291 292 293 294 294 294 296 298 300
317 318 318 317 317 315 314 314 313 312 312 311 311 309 309 307 306 305 304 304 304 304 304 304 303 303 302 302 301 301 300 298 297 293 292 291 292 292 291 292 292 292 292 292 292 293 293 293 294 295 297 298
317 317 316 316 314 315 313 312 311 311 312 311 310 309 308 307 306 305 304 304 303 303 303 303 303 303 302 302 301 301 299 296 293 291 291 291 291 290 291 291 291 290 291 291 291 292 292 293 293 294 295 298
316 317 316 314 315 314 312 312 312 312 311 310 310 309 308 307 305 305 304 304 304 303 303 303 303 303 302 302 301 299 296 294 292 290 290 290 289 289 289 289 289 289 290 290 290 291 292 292 292 293 295 297
315 315 315 314 314 314 312 313 312 311 310 310 309 308 307 307 306 305 304 304 304 303 302 303 302 302 302 302 301 298 295 294 291 289 289 289 289 289 289 288 289 288 288 288 289 289 290 290 291 292 293 296
316 315 314 313 314 313 312 312 311 310 310 309 309 308 307 306 305 305 304 304 303 303 302 302 302 301 301 300 300 297 294 293 291 290 289 289 288 288 288 288 288 288 288 288 288 289 289 289 289 291 293 293
315 314 314 314 314 313 312 310 309 309 309 308 308 308 307 306 305 305 304 304 303 302 302 301 301 300 299 298 296 294 293 291 290 290 290 290 289 288 288 288 287 288 287 287 287 288 288 288 288 290 291 293
315 315 314 314 314 313 312 310 309 308 308 308 307 307 307 306 305 305 304 303 302 302 301 300 300 299 299 297 296 294 292 291 290 289 289 290 290 288 288 287 287 289 287 287 287 287 288 287 288 289 290 292
315 314 314 313 314 312 311 310 309 308 308 308 307 306 306 306 305 304 304 302 301 301 300 299 299 298 297 296 295 293 292 290 288 288 289 288 288 290 287 286 286 285 286 286 286 285 286 286 286 286 288 290
315 315 314 313 313 312 311 310 309 309 308 308 307 306 306 305 305 304 303 302 301 300 299 298 298 296 296 295 293 291 290 289 288 289 288 287 286 285 285 285 286 285 285 284 285 285 285 286 286 286 286 288
315 314 314 313 309 311 310 310 308 308 307 307 306 306 305 305 304 303 302 302 301 299 299 298 297 296 295 293 292 291 290 289 288 288 288 287 286 284 284 285 284 284 284 284 285 284 284 285 286 285 285 287
314 314 313 312 311 310 309 308 306 306 306 306 304 304 305 305 304 304 302 301 300 299 298 297 296 295 294 292 291 290 290 289 288 288 288 287 287 285 283 285 284 284 285 284 285 285 284 285 286 285 285 286
314 313 313 312 310 309 309 309 307 306 305 304 304 303 304 305 304 303 302 301 300 299 298 297 296 294 293 291 290 290 289 288 287 288 287 286 286 286 285 284 284 283 284 285 285 285 284 285 284 284 285 286
311 310 310 311 310 308 308 307 306 306 305 304 304 303 304 304 303 301 301 300 300 298 297 296 295 293 292 291 290 289 288 287 287 287 286 285 285 287 285 285 285 284 284 285 285 284 284 284 283 284 284 286
307 308 307 306 305 304 304 305 304 304 304 303 302 301 301 301 301 300 300 300 299 297 296 295 293 292 292 290 289 288 287 287 287 287 286 285 285 285 286 286 286 285 284 283 283 284 283 283 283 283 284 283
307 305 304 304 303 302 304 305 305 303 302 302 301 300 300 300 301 300 299 298 297 296 296 294 293 293 291 290 289 288 288 288 288 288 287 286 286 285 284 284 285 284 284 282 280 281 281 281 282 283 282 282
304 307 306 303 301 302 304 303 303 302 302 301 301 300 299 299 299 298 298 297 297 297 297 294 293 292 291 290 289 289 289 287 288 287 286 285 284 285 284 283 284 284 283 279 278 278 278 280 281 282 282 281
297 301 303 307 306 304 302 303 302 302 301 299 298 299 298 298 297 297 297 297 296 296 296 295 294 292 291 290 289 287 286 286 286 286 286 285 284 283 283 283 284 283 283 279 280 279 278 275 276 280 280 280
294 298 300 302 305 304 305 303 303 302 302 299 298 297 298 297 297 297 297 297 295 295 295 294 294 293 291 289 289 287 286 286 286 286 286 285 285 284 282 282 283 285 283 281 281 277 277 277 276 274 276 278
291 294 296 298 299 299 298 296 298 299 298 299 297 296 295 296 296 296 296 297 296 295 295 295 295 293 291 289 288 288 287 287 286 286 286 286 285 284 283 282 282 284 284 282 283 280 278 276 275 276 276 278
289 290 291 294 294 292 293 293 290 292 295 297 296 296 296 296 296 296 296 296 296 296 295 294 294 292 291 289 289 288 288 287 287 286 286 286 286 285 284 283 282 281 283 283 283 282 279 280 277 277 277 278
287 288 288 289 291 292 292 292 294 298 299 298 298 296 296 295 295 295 296 296 295 295 294 294 293 290 290 289 289 289 288 288 287 287 287 287 287 286 286 283 281 281 282 282 282 282 282 281 281 278 278 275

ECMWFFLT2_sfc_thetae_135.txt.gz
Theta_e
331 331 331 332 332 332 331 330 330 329 328 327 326 325 325 324 324 323 323 324 323 323 323 323 322 321 321 320 319 318 318 317 319 318 318 320 319 318 317 316 317 317 318 318 317 316 317 319 317 316 312 307
328 328 330 330 330 330 330 330 329 328 327 326 325 325 324 323 322 323 323 323 323 322 322 321 320 321 321 320 319 318 317 316 317 316 316 315 316 316 316 315 316 316 316 316 315 314 316 317 315 314 312 305
327 326 327 328 328 328 328 329 328 327 326 325 324 323 322 321 320 321 322 322 321 321 320 320 320 320 320 319 319 319 318 316 315 314 314 314 314 314 314 313 314 314 314 313 313 314 315 315 312 313 308 304
324 325 325 326 325 326 326 326 325 325 324 322 321 320 319 318 317 318 318 320 318 320 320 319 317 319 320 319 319 318 317 316 314 314 313 313 312 311 310 310 310 311 311 310 311 312 312 311 310 303 304 304
324 325 323 324 323 324 323 323 323 323 322 320 318 317 317 316 314 312 313 315 314 318 314 316 317 318 319 318 318 317 316 315 314 313 313 311 309 305 304 305 306 307 307 307 308 309 311 308 300 301 303 304
324 323 323 324 323 323 322 322 321 321 319 315 316 316 316 314 311 310 310 311 312 309 311 313 315 316 318 317 316 316 315 314 314 313 312 308 306 305 303 302 293 295 304 305 306 308 307 298 296 298 301 304
322 322 323 322 322 321 320 317 316 318 316 316 315 314 312 310 309 309 308 309 310 308 311 312 315 315 317 316 315 315 314 313 313 312 310 305 303 302 301 295 294 293 291 293 302 302 296 294 296 298 300 302
322 322 322 322 321 319 317 315 315 315 315 313 313 311 310 309 308 307 306 309 307 308 309 311 312 314 314 314 314 313 312 313 311 311 308 302 301 305 299 293 293 292 291 290 292 292 292 292 294 296 299 299
321 321 320 320 319 318 316 314 313 313 312 312 311 310 309 308 307 306 306 306 306 303 305 306 308 309 307 307 306 307 303 305 306 303 298 297 296 293 294 292 291 291 291 292 292 292 292 293 293 295 297 299
320 321 320 318 317 316 315 314 313 312 311 311 310 309 308 308 307 306 305 305 303 303 303 303 303 303 304 304 303 303 301 300 298 296 294 293 293 292 292 292 292 292 291 291 291 292 293 293 294 294 296 298
319 320 320 318 317 315 314 314 312 311 311 311 310 309 308 307 306 305 305 304 303 303 303 303 302 302 302 302 301 301 299 298 296 294 292 291 291 290 290 291 291 291 292 292 292 292 292 292 293 294 296 297
316 318 318 317 314 314 313 313 311 311 310 310 310 309 308 308 306 305 304 303 303 303 303 302 302 302 301 301 300 300 299 296 293 291 290 291 290 290 290 290 290 290 290 291 291 292 291 292 293 294 295 297
316 315 315 315 315 314 313 313 312 311 310 310 309 309 308 307 306 305 304 303 303 302 302 302 302 301 301 300 299 299 297 294 291 290 290 289 289 289 289 289 289 289 289 290 291 290 290 291 292 293 295 296
315 315 315 315 315 314 312 312 312 311 310 310 309 309 308 307 307 305 304 303 303 302 302 302 301 301 301 300 299 298 295 292 290 289 289 288 288 288 288 288 289 288 288 289 290 289 289 290 290 292 293 293
315 315 315 313 314 313 313 312 311 310 310 310 309 309 308 307 307 306 305 303 303 302 302 301 301 301 300 299 298 297 294 291 290 289 289 288 288 287 287 287 288 287 287 288 289 289 288 289 290 291 292 293
315 315 315 313 313 313 313 311 311 310 310 309 309 309 308 307 307 306 305 304 303 302 302 301 301 300 299 298 296 295 293 290 289 289 288 288 288 288 287 287 287 287 287 287 287 287 287 288 288 290 291 292
314 315 315 313 312 313 312 310 310 309 309 309 308 308 307 307 306 305 305 304 303 302 302 301 300 299 299 299 295 294 292 290 288 288 288 288 288 287 287 286 286 288 286 286 287 287 286 286 287 289 290 291
314 315 314 313 312 311 310 310 309 309 308 308 307 307 307 306 306 305 305 304 303 302 302 301 300 299 299 297 294 293 291 289 288 288 287 287 287 288 286 285 286 285 285 285 285 286 286 286 286 287 288 289
314 314 314 312 312 312 311 310 309 309 309 308 307 305 306 306 305 305 304 304 303 302 301 300 299 299 298 295 293 292 291 289 288 288 287 287 286 286 285 285 285 285 284 285 285 285 286 286 285 286 287 289
313 313 313 311 310 312 311 310 308 308 308 308 307 306 306 305 304 304 304 303 303 301 300 300 299 299 297 294 292 291 290 288 288 288 288 287 287 285 284 285 284 284 284 284 284 284 284 285 286 284 286 288
309 311 311 310 310 310 309 309 307 306 305 305 305 304 305 305 304 304 303 303 302 301 300 299 299 298 296 294 292 290 289 288 288 288 287 286 287 286 284 284 283 283 283 283 284 284 283 284 285 285 286 287
302 306 310 307 308 306 307 308 308 307 305 305 304 303 304 304 303 303 303 303 302 301 301 300 299 297 296 294 292 289 288 288 288 288 287 285 285 285 285 284 283 282 283 284 284 283 283 284 284 284 285 287
299 301 302 305 308 305 306 306 306 306 305 305 305 304 304 304 302 302 302 302 302 301 300 299 298 296 294 293 291 289 288 286 287 287 286 285 284 285 285 284 284 283 283 284 284 283 283 283 284 284 284 286
294 297 298 299 301 303 303 303 304 304 304 304 304 303 303 303 302 301 301 301 301 300 299 298 297 296 295 292 291 289 287 286 286 286 285 285 285 283 284 285 284 284 284 283 283 283 283 283 283 282 284 284
290 292 295 297 298 298 301 303 301 300 300 302 303 303 303 302 302 302 300 300 300 299 298 297 297 295 294 292 290 289 288 287 287 287 286 285 285 284 283 282 283 284 284 282 281 282 282 282 282 284 284 283
288 290 293 295 296 296 298 300 301 301 301 300 299 299 301 301 301 300 299 298 299 298 298 297 296 294 293 292 290 289 289 288 288 287 285 284 283 284 283 282 283 283 283 280 280 279 279 280 281 281 282 282
286 288 290 292 294 294 295 298 297 300 300 299 299 299 299 300 300 299 298 298 297 297 296 296 295 294 293 292 291 289 288 287 286 286 285 284 284 283 282 282 283 283 284 279 279 279 278 276 277 280 281 280
285 286 288 290 291 292 294 293 294 295 296 297 299 298 298 298 298 298 298 298 297 296 296 296 295 294 293 292 291 290 288 287 286 286 285 285 284 284 281 281 282 283 283 281 280 277 276 276 276 274 276 278
284 285 285 286 287 289 289 290 291 291 291 293 294 296 297 297 298 298 298 298 297 296 296 296 295 294 293 291 291 290 288 287 287 287 286 286 284 283 283 281 282 282 283 282 284 280 277 273 273 276 275 278
283 283 283 283 282 282 284 284 286 286 288 290 291 292 296 298 297 297 296 296 296 296 295 295 295 294 293 291 290 289 289 288 288 287 286 286 285 284 284 284 283 282 283 282 283 282 281 280 278 277 276 277
282 282 283 282 281 282 282 281 283 286 289 290 291 292 293 294 297 297 296 296 296 296 295 295 294 293 292 291 289 290 288 287 287 287 287 287 285 285 285 284 282 282 282 282 282 282 280 281 279 279 278 276

ECMWFFLT2_sfc_thetae_138.txt.gz
Theta_e
329 330 331 332 332 332 331 331 330 328 327 327 326 326 326 326 325 326 327 327 326 325 325 324 323 322 321 321 321 321 322 323 323 323 323 322 321 320 319 318 318 318 319 319 318 318 318 318 316 315 311 307
327 328 330 330 330 330 330 330 328 327 326 326 325 325 325 325 324 325 326 326 325 326 325 323 322 321 321 321 320 321 321 322 322 322 322 321 320 319 318 317 317 317 318 318 317 317 316 315 315 314 310 304
327 326 327 328 328 329 328 328 328 326 326 326 324 324 323 323 322 323 323 324 325 324 324 322 321 321 321 321 320 323 321 321 322 321 320 320 318 318 316 315 315 316 318 318 317 316 315 313 313 311 306 302
326 325 324 326 326 326 326 326 326 326 326 324 322 322 321 320 319 320 321 322 322 323 322 321 319 321 322 321 320 320 319 319 318 318 318 318 318 316 314 314 313 314 316 316 315 314 312 311 309 304 303 303
324 325 322 324 324 324 324 324 324 324 323 321 320 319 318 318 318 318 318 320 318 321 318 318 318 320 321 321 320 319 318 318 318 317 316 316 315 312 310 309 310 312 314 314 313 312 310 307 301 302 303 303
324 324 323 325 325 324 324 323 322 321 320 316 318 317 317 317 314 315 315 314 314 315 314 316 317 318 319 320 320 319 317 316 317 317 316 314 310 307 305 302 292 297 309 311 311 309 307 298 299 301 302 303
321 324 323 324 325 323 322 320 319 319 317 317 316 316 316 312 311 312 311 311 311 311 314 313 316 316 319 320 319 318 316 315 315 315 314 311 307 305 303 295 293 292 292 297 304 302 296 295 297 300 301 301
322 323 322 323 324 323 321 321 318 317 316 315 315 314 313 310 310 310 309 310 309 309 310 312 314 315 316 316 317 316 314 315 314 313 310 308 306 303 297 292 292 291 292 292 293 293 293 294 296 299 300 300
320 319 320 321 320 320 320 318 317 316 315 314 313 311 310 309 309 309 309 308 307 306 307 305 308 311 310 311 311 312 308 308 309 304 299 297 294 292 293 291 291 291 292 293 293 293 293 294 295 297 298 300
319 318 318 319 317 316 315 315 314 313 312 312 311 310 309 308 308 308 307 306 306 306 306 304 303 303 305 305 306 306 305 304 300 295 292 291 291 290 291 291 292 292 292 292 292 292 293 294 295 296 297 299
317 318 317 316 314 314 313 313 312 311 310 310 310 309 309 308 307 307 306 305 305 304 304 303 301 300 301 302 302 303 303 300 297 293 291 291 290 290 290 291 291 292 292 292 292 292 293 293 295 296 297 298
316 316 317 315 313 313 312 313 312 312 312 311 311 310 309 308 308 307 306 305 305 304 303 302 301 301 299 300 299 301 301 298 294 291 290 290 290 290 290 290 290 291 291 291 292 292 292 293 294 296 296 297
315 314 315 314 313 312 311 312 312 312 311 310 309 309 309 308 307 307 307 305 305 304 303 302 301 301 300 299 297 298 297 296 291 289 289 290 290 289 289 289 289 290 290 290 291 291 292 293 294 295 295 296
312 311 312 313 313 313 312 312 310 310 309 309 309 309 309 308 308 307 307 306 305 304 303 302 301 301 300 299 297 297 296 294 289 288 288 288 289 289 289 289 289 290 289 290 290 290 291 292 293 294 294 294
311 309 309 311 313 313 312 311 310 310 310 309 309 309 309 308 308 308 307 306 305 305 304 302 301 301 300 299 299 298 296 293 289 288 287 288 287 288 288 289 289 289 289 289 289 290 290 290 292 292 293 293
310 310 310 310 312 313 312 311 310 309 309 308 309 309 308 308 308 307 306 305 304 304 303 302 301 301 300 300 298 297 295 291 289 288 287 286 286 287 287 287 288 289 288 288 289 289 289 289 291 292 293 293
309 311 310 310 310 311 312 310 309 309 309 309 309 308 307 306 306 306 306 305 304 304 303 302 301 300 300 299 298 295 293 290 287 287 286 286 286 285 285 285 286 288 288 287 287 288 288 289 290 292 292 293
303 306 310 308 310 310 310 311 310 309 309 309 308 307 307 307 306 305 305 304 304 303 302 302 301 300 300 299 297 294 291 288 287 286 286 286 286 287 285 285 285 285 286 286 286 286 287 288 289 291 292 292
300 302 304 308 309 310 310 310 310 309 309 307 307 307 306 306 306 305 305 304 303 302 302 301 301 300 300 298 296 293 290 288 287 286 286 286 285 285 284 284 285 285 285 285 285 285 286 286 287 289 291 291
297 300 302 303 305 309 308 308 308 308 308 307 305 305 305 305 304 304 305 304 303 302 301 301 301 300 300 297 295 293 290 288 287 286 287 287 286 285 284 285 284 285 284 285 285 284 285 285 287 287 288 290
294 297 300 300 302 303 305 307 305 306 308 306 306 305 305 305 304 303 304 303 303 302 302 301 300 300 299 297 295 293 290 288 288 287 287 286 286 286 283 283 283 283 284 284 285 284 284 284 286 286 288 289
291 294 298 298 299 300 300 301 304 305 305 305 306 305 305 304 303 302 303 302 302 302 301 301 300 299 298 297 294 293 290 289 288 287 287 285 285 285 283 283 283 282 283 284 284 283 284 284 284 284 286 288
289 291 293 296 296 298 297 298 300 302 303 304 304 303 302 303 303 302 302 302 301 300 300 300 299 298 297 296 294 293 291 288 287 287 286 286 285 285 284 284 283 283 283 283 283 283 282 283 283 284 285 287
286 287 289 291 293 294 295 295 296 296 296 298 299 301 302 302 302 303 302 302 301 300 299 299 298 297 296 295 293 292 290 289 289 288 287 286 285 284 284 284 283 282 282 281 281 282 282 282 283 283 285 285
285 284 285 289 290 291 293 292 294 294 294 294 295 296 298 300 301 302 302 302 302 301 299 299 298 297 295 295 293 292 291 291 290 290 289 288 288 285 283 282 282 282 282 281 280 280 281 281 281 284 284 283
284 285 284 285 288 290 292 291 290 291 292 292 293 294 295 296 298 299 300 300 301 301 300 298 297 296 295 294 293 293 292 291 290 290 288 287 285 285 284 282 282 282 282 279 279 278 277 279 280 281 283 282
282 284 284 284 285 285 288 291 291 291 291 292 291 293 293 294 295 296 298 298 298 298 298 298 297 296 295 294 293 291 291 290 289 289 288 287 285 283 283 283 283 282 283 278 279 279 278 275 277 280 280 280
281 283 283 284 284 284 284 284 286 289 289 289 289 289 291 292 293 294 295 297 297 297 296 296 296 295 294 294 292 291 290 289 288 288 287 286 286 284 282 282 282 283 283 280 280 277 276 276 276 274 277 278
280 281 281 281 281 282 282 283 283 283 283 285 286 287 288 289 291 292 293 294 296 296 296 296 296 295 294 293 292 292 290 289 289 289 288 287 286 284 283 282 282 283 283 281 284 280 276 273 273 276 276 278
279 279 279 278 278 278 278 278 279 279 279 281 282 283 287 288 289 290 291 292 293 294 295 295 295 294 293 292 290 290 290 290 289 288 288 288 287 286 286 284 282 281 284 282 283 282 280 279 277 277 276 277
279 278 278 277 277 278 277 277 278 279 280 280 281 282 283 284 287 288 288 289 290 291 292 294 294 293 292 291 290 290 288 288 288 288 288 288 287 286 286 285 282 282 282 283 282 283 282 281 280 277 278 276

ECMWFFLT2_sfc_thetae_144.txt.gz
Theta_e
326 327 329 330 331 331 331 333 334 335 333 332 333 332 330 330 330 330 330 330 330 330 330 330 330 331 331 331 331 330 329 328 327 326 327 326 326 324 323 321 322 324 324 324 322 321 320 318 317 315 312 307
323 325 327 327 327 328 330 331 332 332 332 331 330 330 329 327 327 329 329 329 329 329 329 328 329 329 330 330 330 330 329 327 327 325 325 326 325 323 321 321 321 322 322 322 321 320 319 317 316 315 312 306
321 323 323 324 325 327 327 328 328 328 329 328 327 326 326 325 324 326 327 328 328 328 326 327 326 327 329 329 329 328 328 327 326 325 326 325 323 322 321 320 320 321 321 321 321 319 317 316 314 314 309 306
319 321 321 322 322 323 325 325 326 325 326 325 324 323 322 321 321 321 322 325 325 325 326 324 323 326 328 328 328 327 327 327 326 325 325 324 322 320 320 320 320 320 321 321 319 318 315 314 312 307 305 305
316 320 320 322 322 321 322 322 323 324 324 322 321 320 319 317 319 320 321 324 323 325 320 319 320 324 326 327 327 326 326 326 326 326 326 323 321 319 317 316 317 320 320 319 317 315 313 312 307 306 306 306
311 317 320 322 322 320 321 321 321 322 322 318 320 318 317 316 316 320 320 320 317 318 317 318 318 320 323 325 326 325 325 324 324 325 324 323 321 317 315 312 303 308 316 316 314 312 311 306 305 305 306 306
308 314 318 320 321 321 321 318 317 317 316 318 318 317 317 316 317 318 317 315 315 315 316 315 317 317 322 325 323 324 324 323 323 323 323 322 318 315 311 299 297 300 302 306 310 309 305 304 303 304 305 305
306 311 317 319 319 319 320 320 317 317 316 316 317 317 317 316 313 313 315 313 311 311 314 315 315 316 317 317 320 320 320 322 322 323 321 319 314 306 298 294 293 295 297 299 299 301 302 302 303 304 304 305
304 308 313 316 318 318 318 318 319 318 316 314 314 314 314 312 312 313 313 313 313 312 313 312 313 312 312 312 314 314 309 307 307 308 306 302 297 292 294 293 293 294 296 297 299 299 300 301 301 302 302 302
303 305 306 310 314 316 315 316 316 317 316 315 314 314 313 312 311 311 310 310 311 311 312 311 311 310 308 309 310 310 305 301 299 296 295 294 292 290 291 291 291 292 295 296 296 297 298 299 300 300 301 302
300 302 304 306 308 312 314 313 314 314 314 314 315 314 312 312 311 310 310 310 310 310 311 311 310 308 307 308 307 306 303 298 295 294 292 291 290 289 290 290 290 291 292 294 296 297 298 298 299 299 300 301
297 300 301 303 305 308 311 312 312 312 313 313 312 312 311 312 311 310 309 310 310 310 309 310 308 306 306 306 305 304 302 296 293 292 291 290 289 290 289 290 290 291 291 291 293 295 295 296 299 299 298 299
295 297 299 300 301 303 306 310 311 310 311 311 310 311 310 310 311 310 310 309 309 308 308 306 305 305 305 305 304 304 301 299 294 292 290 290 289 289 289 289 290 291 291 290 291 294 294 295 296 296 297 297
291 295 297 298 298 300 302 305 310 310 310 310 309 309 309 310 310 310 309 308 307 307 306 305 304 303 303 304 303 303 300 298 296 292 290 289 289 288 289 289 290 290 290 291 291 293 295 295 295 295 296 296
289 292 295 296 297 297 298 300 302 305 308 309 308 308 308 308 308 308 308 308 307 307 306 304 304 303 301 301 302 302 299 295 294 292 291 289 288 288 288 288 289 290 290 289 290 291 293 293 294 295 295 296
288 289 293 295 294 295 296 297 297 298 299 301 305 307 307 307 307 307 307 307 306 307 305 304 304 302 302 301 301 301 298 294 291 290 288 288 288 288 287 287 286 288 289 288 289 290 291 292 293 294 295 296
287 288 290 293 293 293 294 294 295 295 295 296 298 300 302 304 306 306 306 305 306 305 305 304 303 302 302 301 300 299 296 293 290 288 288 288 287 287 287 286 285 287 286 286 286 287 289 290 292 293 294 295
286 287 288 291 291 291 292 292 293 293 293 294 294 296 296 298 301 305 305 305 304 304 304 303 302 301 300 300 300 298 295 293 292 290 288 287 286 288 287 286 284 284 285 284 284 284 285 288 289 291 293 293
284 287 287 288 288 289 290 290 290 291 292 292 292 293 293 294 296 298 300 303 303 303 303 302 302 301 301 299 299 297 295 293 292 292 289 287 286 286 285 284 285 283 283 284 285 284 284 285 286 288 289 290
283 285 287 287 288 287 288 288 288 289 289 290 290 290 291 292 293 294 295 297 300 302 302 301 301 300 300 298 298 296 294 293 292 291 289 289 287 285 284 285 284 284 283 283 284 283 283 282 286 285 286 288
281 283 284 285 286 286 286 286 286 287 288 288 288 288 288 289 291 291 292 293 296 299 301 301 300 300 299 298 297 295 293 293 292 290 289 289 287 287 285 285 284 283 283 283 283 282 282 282 284 284 285 286
280 281 283 284 284 286 284 284 284 285 286 286 286 287 287 287 288 289 289 290 292 294 296 299 300 299 299 298 297 295 293 292 291 290 289 288 287 287 285 284 284 284 282 282 282 281 281 281 281 282 283 286
279 280 281 283 283 283 283 283 283 283 284 285 285 285 286 286 286 287 287 288 289 290 292 294 296 299 298 297 296 294 293 291 290 289 289 288 286 286 285 285 284 283 283 282 281 281 280 280 280 281 283 285
277 277 278 279 280 281 281 281 282 281 281 283 283 284 284 285 285 286 286 286 287 287 288 290 291 293 296 296 295 294 292 291 290 289 288 288 287 286 286 286 284 284 283 281 279 282 280 279 279 281 285 283
276 275 276 277 278 278 280 280 281 280 280 281 281 282 282 283 283 284 284 285 285 285 286 287 288 289 291 294 295 294 294 293 291 291 290 289 288 287 285 284 284 284 284 282 281 281 281 281 281 284 284 282
276 276 276 276 276 277 279 278 278 278 279 280 281 281 281 281 281 282 283 283 284 284 285 285 286 286 288 290 291 294 294 293 292 291 290 289 287 288 287 285 285 285 285 281 280 280 278 280 281 283 283 281
276 276 276 276 276 276 277 278 279 279 279 279 279 280 280 280 280 280 281 281 282 282 283 284 284 285 286 287 288 289 291 291 291 290 289 288 287 285 286 286 286 286 288 283 282 282 281 279 278 281 282 281
276 277 276 276 276 276 276 276 278 278 279 278 278 278 279 279 279 279 279 280 280 280 281 282 282 283 284 285 286 287 288 289 290 290 289 288 288 287 284 284 284 286 288 286 285 282 281 281 277 278 279 279
276 276 275 275 275 276 275 275 275 275 275 276 277 277 277 278 279 279 279 279 279 279 279 280 281 281 283 284 285 285 285 286 287 289 289 289 288 287 287 285 284 285 287 287 290 287 281 279 279 279 279 278
276 275 274 274 274 273 273 273 273 272 273 274 274 275 277 277 278 278 278 278 278 278 278 278 279 280 281 282 283 283 284 285 285 286 287 289 288 287 288 286 285 283 285 286 287 288 288 286 285 283 280 281
276 274 274 274 273 273 273 272 273 273 274 274 275 275 275 276 277 277 277 277 277 277 277 278 278 278 279 280 281 282 282 282 283 284 286 287 287 287 288 286 285 284 283 284 284 285 285 283 282 282 280 279

ECMWFFLT2_sfc_thetae_150.txt.gz
Theta_e
311 312 314 315 316 318 320 323 324 326 328 329 333 334 334 333 334 334 333 333 332 332 331 329 330 329 329 329 330 330 331 332 332 331 331 331 332 332 332 332 331 329 328 326 324 323 322 321 320 320 324 329
309 310 312 312 313 314 316 319 321 323 325 326 328 329 328 328 327 329 330 330 330 330 329 328 326 327 327 326 327 329 330 331 331 330 329 330 330 330 331 331 330 328 327 325 323 321 319 319 319 320 323 329
308 308 309 310 310 312 313 315 317 320 322 323 324 324 325 325 325 326 327 328 329 328 327 328 327 326 328 330 330 330 329 329 329 330 329 329 328 328 328 329 328 327 326 324 323 321 319 318 317 317 324 328
306 307 307 308 308 309 310 311 313 316 318 319 320 320 321 321 327 326 329 326 330 328 326 325 326 328 328 329 329 329 329 329 329 328 328 327 326 326 326 327 327 326 325 324 323 322 320 317 317 322 321 323
305 305 306 307 307 307 308 308 309 312 314 316 317 317 319 321 326 326 328 328 328 325 329 321 322 324 324 325 328 327 327 328 329 328 326 326 325 324 323 323 323 324 325 324 322 321 317 316 320 320 321 322
303 304 304 305 305 305 305 306 306 306 307 310 311 313 317 320 324 324 324 324 318 326 324 324 319 320 322 324 327 327 327 326 328 327 326 324 323 321 320 319 321 320 321 320 320 318 316 319 320 320 321 320
302 303 303 304 304 304 303 303 303 303 304 305 306 307 310 314 319 322 324 322 318 318 318 324 319 318 322 325 326 327 325 325 326 326 325 323 321 319 318 320 320 319 319 319 315 315 317 320 321 320 320 321
300 301 301 301 302 302 301 301 301 301 301 302 302 303 305 308 313 319 321 316 315 314 323 323 317 317 318 319 320 320 322 322 322 323 322 319 316 315 317 318 317 317 317 317 317 315 316 318 320 321 322 322
297 299 300 300 300 300 300 300 299 299 299 299 299 300 302 304 308 313 318 320 321 323 324 324 325 324 325 324 324 319 322 319 322 320 315 313 310 311 310 314 315 315 316 315 315 316 317 317 317 318 321 322
296 297 297 297 297 298 299 298 298 298 297 297 297 298 299 301 303 306 310 314 318 319 321 322 322 323 323 324 322 321 318 316 317 314 313 312 311 310 309 308 309 310 311 312 313 315 317 317 317 318 318 320
294 294 295 295 296 296 296 297 296 296 296 295 295 295 296 297 299 301 303 304 309 314 318 319 322 322 321 321 320 321 318 315 314 313 313 313 311 308 306 306 307 307 306 308 310 311 313 316 316 317 318 318
292 293 293 293 294 294 294 294 294 294 295 295 294 294 294 295 296 297 298 300 302 305 313 315 317 320 318 318 318 316 315 312 312 312 311 311 310 308 307 307 308 307 306 306 309 309 310 311 313 315 317 318
291 292 292 292 292 292 293 293 292 292 293 293 293 293 294 294 293 295 295 297 299 302 305 311 314 317 318 318 316 314 313 312 311 311 310 309 310 310 310 309 309 308 306 306 307 309 310 310 310 312 314 316
290 291 291 291 291 291 292 291 292 291 290 291 292 292 293 293 292 292 293 294 296 299 300 305 310 313 315 315 313 313 311 310 310 311 310 309 309 309 310 310 309 308 307 305 306 307 309 309 309 309 310 313
288 289 289 290 290 290 290 290 291 291 290 289 290 290 291 292 292 291 292 292 294 296 298 299 302 308 310 311 312 312 310 307 308 307 308 308 307 308 308 307 307 309 308 307 306 305 306 307 307 309 311 311
287 288 289 290 289 289 290 290 289 290 289 289 288 288 289 290 290 291 291 292 292 293 295 296 297 300 303 306 308 308 308 305 304 304 303 303 304 306 306 304 305 307 307 306 307 306 306 305 306 309 309 311
286 287 288 288 288 288 289 288 288 288 288 288 288 288 288 288 288 289 289 290 292 293 294 294 295 295 296 299 304 305 304 304 302 302 299 299 298 301 302 302 301 303 304 305 305 305 305 305 305 306 308 310
285 286 287 287 287 288 288 287 287 287 287 287 287 288 287 287 287 286 287 288 290 292 292 292 293 293 293 296 300 302 302 301 301 300 299 298 297 296 297 298 298 299 300 300 300 303 304 305 305 305 306 307
285 286 286 286 286 286 287 287 286 286 287 287 287 287 286 287 286 285 285 287 288 290 291 291 291 291 292 294 297 300 300 299 299 299 299 297 298 297 297 296 295 296 298 297 297 299 301 303 303 305 305 305
285 285 286 286 286 286 286 286 285 285 285 286 286 286 286 286 286 286 284 284 286 288 289 290 290 291 291 292 295 298 299 299 298 297 297 297 298 297 295 294 293 295 295 294 294 295 296 298 299 302 303 304
286 285 285 285 286 286 286 285 285 285 285 285 285 285 285 285 286 286 285 283 284 285 287 288 289 290 290 291 293 294 296 297 296 296 295 296 294 294 296 296 294 292 293 293 293 293 294 295 297 299 301 301
285 285 285 285 285 286 285 285 285 285 285 284 284 284 283 284 285 285 285 284 283 283 285 286 287 288 289 290 291 292 292 293 294 295 294 293 294 293 292 293 294 294 292 293 292 292 293 293 293 295 296 297
286 286 286 285 285 285 285 285 285 284 284 284 284 283 283 283 284 284 284 284 284 283 282 283 284 285 287 288 289 290 290 290 290 292 293 292 292 293 293 291 291 292 293 292 292 292 292 292 291 293 294 294
285 285 284 284 284 284 284 284 284 284 283 284 283 283 283 283 283 283 283 283 284 284 282 281 282 283 284 286 287 287 287 287 288 288 289 291 291 291 292 293 292 291 291 291 291 290 290 290 291 292 292 292
284 283 283 284 283 282 283 283 283 283 283 283 283 283 282 282 282 282 282 282 283 283 282 282 281 282 282 283 285 285 285 286 287 288 288 289 291 290 290 290 291 291 292 289 288 290 289 289 290 290 291 291
284 284 283 283 283 282 283 282 282 282 283 283 283 283 282 282 282 282 281 281 282 282 282 281 280 280 280 281 283 284 285 285 286 286 286 288 288 289 288 288 290 290 290 288 287 288 289 287 289 289 290 290
283 284 284 283 283 283 282 284 283 283 283 283 283 283 283 282 282 282 281 281 281 281 281 281 281 281 281 281 282 281 282 283 283 284 284 285 285 286 288 287 288 288 288 286 287 287 287 289 289 290 288 290
284 284 284 284 284 284 283 282 283 283 283 283 283 282 282 282 282 282 281 281 280 280 280 280 280 281 281 281 281 280 280 280 281 282 283 283 284 285 284 286 287 287 287 286 286 285 286 287 289 290 291 289
283 284 284 284 285 285 284 284 283 282 282 282 282 282 282 281 282 281 281 281 281 280 280 279 279 279 280 280 280 279 279 279 280 280 281 282 283 284 284 284 286 287 287 286 287 285 285 285 285 287 291 288
283 283 282 281 281 280 281 280 281 280 279 280 280 280 281 282 282 281 281 281 281 280 280 279 279 279 279 279 279 279 278 278 279 279 280 281 282 282 284 284 285 285 287 286 286 286 287 285 283 283 286 287
283 282 282 281 281 281 280 280 281 281 281 281 281 282 281 281 281 281 281 281 281 280 280 280 279 279 279 279 279 279 278 277 277 278 279 280 281 281 282 282 282 283 284 286 286 286 286 286 285 285 284 284